Wacker, Stefan (2026): Meteorological synoptical observations from station Lindenberg (2023-09) [dataset]. Meteorologisches Observatorium Lindenberg - Richard-Aßmann-Observatorium, PANGAEA, https://doi.org/10.1594/PANGAEA.993500
Always quote citation above when using data! You can download the citation in several formats below.
Published: 2026-04-09 • DOI registered: 2026-05-08
Other version:
Wacker, Stefan (2026): BSRN Station-to-archive file for station Lindenberg (2023-09) [dataset]. ftp://ftp.bsrn.awi.de/lin/lin0923.dat.gz
Project(s):
Coverage:
Latitude: 52.210000 * Longitude: 14.122000
Date/Time Start: 2023-09-01T00:00:00 * Date/Time End: 2023-09-30T23:00:00
Minimum Elevation: 125.0 m * Maximum Elevation: 125.0 m
Event(s):
LIN (Lindenberg) * Latitude: 52.210000 * Longitude: 14.122000 * Date/Time: 1994-09-01T00:00:00 * Elevation: 125.0 m * Location: Germany * Method/Device: Monitoring station (MONS) * Comment: BSRN station no: 12; Surface type: cultivated; Topography type: hilly, rural; Horizon: doi:10.1594/PANGAEA.669521; Station scientist: Stefan Wacker (Stefan.Wacker@dwd.de)
Parameter(s):
| # | Name | Short Name | Unit | Principal Investigator | Method/Device | Comment |
|---|---|---|---|---|---|---|
| 1 | DATE/TIME | Date/Time | Wacker, Stefan | Geocode | ||
| 2 | Total cloud amount | N | code | Wacker, Stefan | Visual observation | |
| 3 | Wind direction | dd | deg | Wacker, Stefan | Anemometer | |
| 4 | Wind speed | ff | m/s | Wacker, Stefan | Anemometer | |
| 5 | Temperature, air | TTT | °C | Wacker, Stefan | Thermometer | |
| 6 | Dew/frost point | TdTdTd | °C | Wacker, Stefan | Hygrometer (HYGRO) | |
| 7 | Station pressure | PoPoPoPo | hPa | Wacker, Stefan | Barometer (BARO) | |
| 8 | Pressure, atmospheric | PPPP | hPa | Wacker, Stefan | Barometer (BARO) | |
| 9 | Present weather | ww | code | Wacker, Stefan | Visual observation | |
| 10 | Past weather1 | W1 | code | Wacker, Stefan | Visual observation | |
| 11 | Past weather2 | W2 | code | Wacker, Stefan | Visual observation | |
| 12 | Code | Code | Wacker, Stefan | YYGG9 IIiii Nddff 1SnTTT 2SnTdTdTd 3P0P0P0 4PPPP 7wwW1W2 8NhClCmCh 333 8NsChshs 8NsChshs 8NsChshs |
License:
Status:
Curation Level: Enhanced curation (CurationLevelC)
Size:
6186 data points
Data
| 1 Date/Time | 2 N [code] | 3 dd [deg] | 4 ff [m/s] | 5 TTT [°C] | 6 TdTdTd [°C] | 7 PoPoPoPo [hPa] | 8 PPPP [hPa] | 9 ww [code] | 10 W1 [code] | 11 W2 [code] | 12 Code |
|---|---|---|---|---|---|---|---|---|---|---|---|
| 2023-09-01T00:00 | 0 | 240 | 3 | 10.8 | 9.0 | 1000 | 1013 | 10 | 0 | 1 | 01009 10393 02403 10108 20090 30005 40130 71001615 8//// |
| 2023-09-01T01:00 | 0 | 240 | 4 | 10.5 | 8.9 | 1001 | 1013 | 01019 10393 02404 10105 20089 30006 40131 7//// 8//// | |||
| 2023-09-01T02:00 | 0 | 230 | 3 | 10.2 | 9.0 | 1001 | 1013 | 01029 10393 02303 10102 20090 30006 40131 7//// 8//// | |||
| 2023-09-01T03:00 | 0 | 220 | 3 | 9.8 | 8.8 | 1001 | 1013 | 01039 10393 02203 10098 20088 30008 40133 7//// 8//// | |||
| 2023-09-01T04:00 | 1 | 230 | 3 | 9.7 | 8.7 | 1001 | 1014 | 01049 10393 12303 10097 20087 30009 40135 7//// 8//// | |||
| 2023-09-01T05:00 | 0 | 220 | 3 | 9.6 | 8.7 | 1001 | 1014 | 01059 10393 02203 10096 20087 30012 40138 7//// 8//// | |||
| 2023-09-01T06:00 | 0 | 230 | 3 | 10.9 | 9.4 | 1001 | 1014 | 01069 10393 02303 10109 20094 30014 40139 7//// 8//// | |||
| 2023-09-01T07:00 | 8 | 240 | 3 | 13.2 | 10.1 | 1002 | 1014 | 01079 10393 82403 10132 20101 30019 40143 7//// 8//// | |||
| 2023-09-01T08:00 | 4 | 230 | 4 | 15.5 | 10.5 | 1002 | 1014 | 01089 10393 42304 10155 20105 30020 40143 7//// 8//// | |||
| 2023-09-01T09:00 | 0 | 250 | 4 | 17.7 | 10.4 | 1002 | 1014 | 01099 10393 02504 10177 20104 30022 40144 7//// 8//// | |||
| 2023-09-01T10:00 | 3 | 250 | 5 | 19.0 | 9.8 | 1002 | 1014 | 01109 10393 32505 10190 20098 30022 40144 7//// 8//// | |||
| 2023-09-01T11:00 | 6 | 250 | 5 | 19.3 | 9.3 | 1002 | 1014 | 01119 10393 62505 10193 20093 30022 40144 7//// 8//// | |||
| 2023-09-01T12:00 | 8 | 260 | 5 | 20.1 | 9.1 | 1002 | 1014 | 01129 10393 82605 10201 20091 30023 40144 7//// 8//// | |||
| 2023-09-01T13:00 | 7 | 260 | 3 | 20.7 | 10.2 | 1002 | 1014 | 01139 10393 72603 10207 20102 30022 40143 7//// 8//// | |||
| 2023-09-01T14:00 | 7 | 270 | 3 | 20.9 | 10.9 | 1002 | 1014 | 01149 10393 72703 10209 20109 30022 40143 7//// 8//// | |||
| 2023-09-01T15:00 | 8 | 360 | 1 | 20.2 | 10.9 | 1002 | 1014 | 01159 10393 83601 10202 20109 30020 40141 7//// 8//// | |||
| 2023-09-01T16:00 | 8 | 80 | 1 | 18.7 | 11.6 | 1002 | 1014 | 01169 10393 80801 10187 20116 30022 40144 7//// 8//// | |||
| 2023-09-01T17:00 | 8 | 360 | 1 | 17.4 | 12.0 | 1002 | 1015 | 01179 10393 83601 10174 20120 30024 40146 7//// 8//// | |||
| 2023-09-01T18:00 | 8 | 60 | 2 | 16.9 | 11.1 | 1002 | 1015 | 01189 10393 80602 10169 20111 30025 40148 7//// 8//// | |||
| 2023-09-01T19:00 | 8 | 70 | 2 | 16.7 | 10.5 | 1003 | 1015 | 10 | 0 | 1 | 01199 10393 80702 10167 20105 30030 40153 710011-1 8//// |
| 2023-09-01T20:00 | 8 | 70 | 2 | 16.6 | 10.8 | 1003 | 1016 | 10 | 0 | 1 | 01209 10393 80702 10166 20108 30033 40156 710011-1 8//// |
| 2023-09-01T21:00 | 8 | 80 | 1 | 15.2 | 11.6 | 1004 | 1016 | 10 | 0 | 1 | 01219 10393 80801 10152 20116 30036 40159 710011-1 8//// |
| 2023-09-01T22:00 | 8 | 150 | 1 | 14.6 | 11.1 | 1004 | 1016 | 01229 10393 81501 10146 20111 30039 40163 7//// 8//// | |||
| 2023-09-01T23:00 | 2 | 280 | 1 | 13.6 | 11.5 | 1004 | 1017 | 01239 10393 22801 10136 20115 30043 40167 7//// 8//// | |||
| 2023-09-02T00:00 | 2 | 300 | 2 | 12.8 | 11.8 | 1005 | 1017 | 10 | 0 | 1 | 02009 10393 23002 10128 20118 30046 40170 710011-1 8//// |
| 2023-09-02T01:00 | 2 | 310 | 2 | 13.6 | 12.8 | 1005 | 1017 | 02019 10393 23102 10136 20128 30047 40171 7//// 8//// | |||
| 2023-09-02T02:00 | 0 | 310 | 2 | 12.7 | 12.3 | 1005 | 1018 | 11 | 0 | 1 | 02029 10393 03102 10127 20123 30050 40175 711011-1 8//// |
| 2023-09-02T03:00 | 0 | 300 | 2 | 11.9 | 11.4 | 1005 | 1018 | 12 | 0 | 1 | 02039 10393 03002 10119 20114 30054 40179 71201311 8//// |
| 2023-09-02T04:00 | 3 | 350 | 1 | 12.6 | 12.1 | 1006 | 1018 | 11 | 0 | 1 | 02049 10393 33501 10126 20121 30056 40181 711011-1 8//// |
| 2023-09-02T05:00 | 2 | 20 | 2 | 11.9 | 11.2 | 1006 | 1019 | 12 | 0 | 1 | 02059 10393 20202 10119 20112 30061 40186 71201311 8//// |
| 2023-09-02T06:00 | 0 | 200 | 1 | 13.5 | 12.1 | 1007 | 1019 | 10 | 0 | 1 | 02069 10393 02001 10135 20121 30067 40191 71001311 8//// |
| 2023-09-02T07:00 | 2 | 270 | 1 | 16.3 | 12.4 | 1007 | 1020 | 02079 10393 22701 10163 20124 30072 40195 7//// 8//// | |||
| 2023-09-02T08:00 | 7 | 320 | 1 | 18.1 | 10.4 | 1008 | 1020 | 02089 10393 73201 10181 20104 30078 40201 7//// 8//// | |||
| 2023-09-02T09:00 | 3 | 270 | 2 | 19.1 | 11.4 | 1008 | 1020 | 02099 10393 32702 10191 20114 30083 40205 7//// 8//// | |||
| 2023-09-02T10:00 | 7 | 280 | 2 | 20.2 | 11.4 | 1008 | 1021 | 02109 10393 72802 10202 20114 30085 40207 7//// 8//// | |||
| 2023-09-02T11:00 | 7 | 250 | 2 | 20.9 | 10.9 | 1009 | 1021 | 02119 10393 72502 10209 20109 30088 40210 7//// 8//// | |||
| 2023-09-02T12:00 | 7 | 280 | 2 | 20.6 | 11.7 | 1009 | 1021 | 02129 10393 72802 10206 20117 30089 40211 7//// 8//// | |||
| 2023-09-02T13:00 | 8 | 270 | 3 | 20.6 | 11.7 | 1009 | 1021 | 02139 10393 82703 10206 20117 30089 40211 7//// 8//// | |||
| 2023-09-02T14:00 | 8 | 250 | 3 | 21.2 | 12.3 | 1009 | 1021 | 02149 10393 82503 10212 20123 30089 40210 7//// 8//// | |||
| 2023-09-02T15:00 | 8 | 250 | 3 | 21.3 | 12.0 | 1009 | 1021 | 02159 10393 82503 10213 20120 30090 40211 7//// 8//// | |||
| 2023-09-02T16:00 | 7 | 280 | 3 | 20.4 | 11.8 | 1009 | 1021 | 02169 10393 72803 10204 20118 30092 40214 7//// 8//// | |||
| 2023-09-02T17:00 | 8 | 280 | 3 | 19.7 | 12.2 | 1010 | 1022 | 02179 10393 82803 10197 20122 30095 40217 7//// 8//// | |||
| 2023-09-02T18:00 | 8 | 300 | 2 | 18.3 | 12.8 | 1010 | 1022 | 02189 10393 83002 10183 20128 30097 40220 7//// 8//// | |||
| 2023-09-02T19:00 | 8 | 280 | 2 | 17.2 | 13.3 | 1010 | 1022 | 10 | 0 | 1 | 02199 10393 82802 10172 20133 30102 40225 710011-1 8//// |
| 2023-09-02T20:00 | 4 | 290 | 2 | 16.0 | 13.4 | 1010 | 1023 | 02209 10393 42902 10160 20134 30104 40228 7//// 8//// | |||
| 2023-09-02T21:00 | 7 | 260 | 2 | 15.0 | 13.3 | 1010 | 1023 | 10 | 0 | 1 | 02219 10393 72602 10150 20133 30103 40227 710011-1 8//// |
| 2023-09-02T22:00 | 2 | 260 | 2 | 14.5 | 12.8 | 1010 | 1023 | 02229 10393 22602 10145 20128 30105 40229 7//// 8//// | |||
| 2023-09-02T23:00 | 0 | 270 | 2 | 14.2 | 12.9 | 1010 | 1023 | 02239 10393 02702 10142 20129 30103 40228 7//// 8//// | |||
| 2023-09-03T00:00 | 8 | 310 | 2 | 15.1 | 13.1 | 1011 | 1023 | 10 | 0 | 1 | 03009 10393 83102 10151 20131 30109 40233 710011-1 8//// |
| 2023-09-03T01:00 | 8 | 290 | 2 | 15.1 | 13.2 | 1011 | 1023 | 03019 10393 82902 10151 20132 30109 40233 7//// 8//// | |||
| 2023-09-03T02:00 | 8 | 320 | 2 | 14.8 | 13.0 | 1011 | 1023 | 03029 10393 83202 10148 20130 30109 40233 7//// 8//// | |||
| 2023-09-03T03:00 | 8 | 290 | 3 | 14.2 | 13.1 | 1011 | 1023 | 03039 10393 82903 10142 20131 30108 40233 7//// 8//// | |||
| 2023-09-03T04:00 | 8 | 320 | 2 | 14.0 | 12.9 | 1011 | 1023 | 03049 10393 83202 10140 20129 30107 40232 7//// 8//// | |||
| 2023-09-03T05:00 | 8 | 290 | 2 | 14.1 | 13.2 | 1011 | 1024 | 10 | 0 | 1 | 03059 10393 82902 10141 20132 30111 40236 710011-1 8//// |
| 2023-09-03T06:00 | 8 | 300 | 3 | 15.1 | 13.7 | 1012 | 1024 | 10 | 0 | 1 | 03069 10393 83003 10151 20137 30116 40240 710011-1 8//// |
| 2023-09-03T07:00 | 8 | 300 | 3 | 16.0 | 13.2 | 1012 | 1025 | 03079 10393 83003 10160 20132 30123 40247 7//// 8//// | |||
| 2023-09-03T08:00 | 8 | 300 | 4 | 17.4 | 12.9 | 1013 | 1025 | 03089 10393 83004 10174 20129 30130 40253 7//// 8//// | |||
| 2023-09-03T09:00 | 8 | 300 | 3 | 18.0 | 13.0 | 1014 | 1026 | 03099 10393 83003 10180 20130 30136 40259 7//// 8//// | |||
| 2023-09-03T10:00 | 8 | 310 | 3 | 18.6 | 12.4 | 1014 | 1026 | 03109 10393 83103 10186 20124 30135 40258 7//// 8//// | |||
| 2023-09-03T11:00 | 8 | 290 | 4 | 19.1 | 11.0 | 1014 | 1026 | 03119 10393 82904 10191 20110 30137 40260 7//// 8//// | |||
| 2023-09-03T12:00 | 8 | 260 | 5 | 19.6 | 10.3 | 1014 | 1026 | 03129 10393 82605 10196 20103 30139 40262 7//// 8//// | |||
| 2023-09-03T13:00 | 8 | 300 | 5 | 19.8 | 10.3 | 1014 | 1027 | 03139 10393 83005 10198 20103 30143 40266 7//// 8//// | |||
| 2023-09-03T14:00 | 8 | 310 | 3 | 20.1 | 9.0 | 1014 | 1027 | 03149 10393 83103 10201 20090 30144 40267 7//// 8//// | |||
| 2023-09-03T15:00 | 8 | 300 | 3 | 19.8 | 10.8 | 1014 | 1027 | 03159 10393 83003 10198 20108 30145 40268 7//// 8//// | |||
| 2023-09-03T16:00 | 8 | 300 | 3 | 19.5 | 10.6 | 1015 | 1027 | 03169 10393 83003 10195 20106 30146 40269 7//// 8//// | |||
| 2023-09-03T17:00 | 8 | 310 | 2 | 18.6 | 11.5 | 1015 | 1027 | 03179 10393 83102 10186 20115 30147 40270 7//// 8//// | |||
| 2023-09-03T18:00 | 8 | 300 | 2 | 17.3 | 11.4 | 1015 | 1027 | 03189 10393 83002 10173 20114 30149 40273 7//// 8//// | |||
| 2023-09-03T19:00 | 8 | 320 | 2 | 16.8 | 11.7 | 1015 | 1028 | 03199 10393 83202 10168 20117 30153 40277 7//// 8//// | |||
| 2023-09-03T20:00 | 8 | 330 | 1 | 15.6 | 11.5 | 1016 | 1028 | 03209 10393 83301 10156 20115 30155 40280 7//// 8//// | |||
| 2023-09-03T21:00 | 7 | 250 | 1 | 14.9 | 11.7 | 1015 | 1028 | 03219 10393 72501 10149 20117 30153 40278 7//// 8//// | |||
| 2023-09-03T22:00 | 7 | 310 | 2 | 14.4 | 12.0 | 1016 | 1028 | 03229 10393 73102 10144 20120 30158 40283 7//// 8//// | |||
| 2023-09-03T23:00 | 7 | 280 | 2 | 13.9 | 11.7 | 1016 | 1028 | 03239 10393 72802 10139 20117 30160 40285 7//// 8//// | |||
| 2023-09-04T00:00 | 7 | 290 | 2 | 13.7 | 11.8 | 1016 | 1029 | 04009 10393 72902 10137 20118 30161 40287 7//// 8//// | |||
| 2023-09-04T01:00 | 2 | 290 | 2 | 12.9 | 11.6 | 1016 | 1029 | 04019 10393 22902 10129 20116 30161 40287 7//// 8//// | |||
| 2023-09-04T02:00 | 2 | 300 | 2 | 12.5 | 11.6 | 1016 | 1029 | 04029 10393 23002 10125 20116 30162 40288 7//// 8//// | |||
| 2023-09-04T03:00 | 0 | 290 | 3 | 12.6 | 11.4 | 1016 | 1029 | 04039 10393 02903 10126 20114 30162 40288 7//// 8//// | |||
| 2023-09-04T04:00 | 0 | 300 | 2 | 12.2 | 11.5 | 1017 | 1029 | 04049 10393 03002 10122 20115 30166 40292 7//// 8//// | |||
| 2023-09-04T05:00 | 0 | 320 | 2 | 12.2 | 11.4 | 1017 | 1029 | 04059 10393 03202 10122 20114 30168 40294 7//// 8//// | |||
| 2023-09-04T06:00 | 4 | 310 | 2 | 13.6 | 11.7 | 1017 | 1030 | 04069 10393 43102 10136 20117 30171 40297 7//// 8//// | |||
| 2023-09-04T07:00 | 0 | 310 | 2 | 16.1 | 12.8 | 1017 | 1030 | 04079 10393 03102 10161 20128 30170 40295 7//// 8//// | |||
| 2023-09-04T08:00 | 0 | 250 | 2 | 18.2 | 13.3 | 1017 | 1029 | 04089 10393 02502 10182 20133 30169 40293 7//// 8//// | |||
| 2023-09-04T09:00 | 0 | 260 | 3 | 19.7 | 12.8 | 1017 | 1029 | 04099 10393 02603 10197 20128 30170 40293 7//// 8//// | |||
| 2023-09-04T10:00 | 0 | 320 | 2 | 21.0 | 12.1 | 1017 | 1029 | 04109 10393 03202 10210 20121 30170 40292 7//// 8//// | |||
| 2023-09-04T11:00 | 0 | 270 | 2 | 21.7 | 12.6 | 1017 | 1029 | 04119 10393 02702 10217 20126 30169 40291 7//// 8//// | |||
| 2023-09-04T12:00 | 0 | 300 | 2 | 22.9 | 12.8 | 1016 | 1029 | 04129 10393 03002 10229 20128 30164 40286 7//// 8//// | |||
| 2023-09-04T13:00 | 0 | 240 | 3 | 23.2 | 12.4 | 1016 | 1028 | 04139 10393 02403 10232 20124 30162 40283 7//// 8//// | |||
| 2023-09-04T14:00 | 2 | 300 | 2 | 24.5 | 13.5 | 1015 | 1028 | 04149 10393 23002 10245 20135 30154 40275 7//// 8//// | |||
| 2023-09-04T15:00 | 3 | 230 | 2 | 24.7 | 11.9 | 1015 | 1027 | 04159 10393 32302 10247 20119 30150 40271 7//// 8//// | |||
| 2023-09-04T16:00 | 1 | 280 | 2 | 24.4 | 12.0 | 1015 | 1027 | 04169 10393 12802 10244 20120 30149 40270 7//// 8//// | |||
| 2023-09-04T17:00 | 0 | 170 | 1 | 23.6 | 13.0 | 1015 | 1027 | 04179 10393 01701 10236 20130 30147 40268 7//// 8//// | |||
| 2023-09-04T18:00 | 0 | 150 | 1 | 20.6 | 13.6 | 1014 | 1027 | 04189 10393 01501 10206 20136 30145 40267 7//// 8//// | |||
| 2023-09-04T19:00 | 0 | 130 | 2 | 19.7 | 13.3 | 1015 | 1027 | 04199 10393 01302 10197 20133 30146 40269 7//// 8//// | |||
| 2023-09-04T20:00 | 0 | 120 | 2 | 18.9 | 13.3 | 1015 | 1027 | 04209 10393 01202 10189 20133 30146 40269 7//// 8//// | |||
| 2023-09-04T21:00 | 0 | 140 | 1 | 18.7 | 13.6 | 1015 | 1027 | 04219 10393 01401 10187 20136 30146 40269 7//// 8//// | |||
| 2023-09-04T22:00 | 0 | 140 | 2 | 18.6 | 13.8 | 1015 | 1027 | 04229 10393 01402 10186 20138 30146 40269 7//// 8//// | |||
| 2023-09-04T23:00 | 0 | 140 | 2 | 17.7 | 13.6 | 1015 | 1027 | 04239 10393 01402 10177 20136 30147 40271 7//// 8//// | |||
| 2023-09-05T00:00 | 0 | 150 | 2 | 16.9 | 13.5 | 1014 | 1027 | 05009 10393 01502 10169 20135 30144 40268 7//// 8//// | |||
| 2023-09-05T01:00 | 0 | 150 | 2 | 16.1 | 13.5 | 1014 | 1027 | 05019 10393 01502 10161 20135 30142 40266 7//// 8//// | |||
| 2023-09-05T02:00 | 0 | 150 | 2 | 15.6 | 13.5 | 1014 | 1026 | 05029 10393 01502 10156 20135 30139 40263 7//// 8//// | |||
| 2023-09-05T03:00 | 2 | 150 | 2 | 15.5 | 13.0 | 1014 | 1026 | 10 | 0 | 1 | 05039 10393 21502 10155 20130 30135 40259 710011-1 8//// |
| 2023-09-05T04:00 | 4 | 150 | 2 | 15.0 | 12.8 | 1013 | 1026 | 05049 10393 41502 10150 20128 30133 40258 7//// 8//// | |||
| 2023-09-05T05:00 | 2 | 140 | 2 | 14.7 | 12.7 | 1014 | 1026 | 05059 10393 21402 10147 20127 30135 40260 7//// 8//// | |||
| 2023-09-05T06:00 | 2 | 130 | 2 | 16.3 | 12.8 | 1014 | 1026 | 10 | 0 | 1 | 05069 10393 21302 10163 20128 30138 40262 710011-1 8//// |
| 2023-09-05T07:00 | 7 | 150 | 2 | 18.5 | 13.6 | 1014 | 1026 | 10 | 0 | 1 | 05079 10393 71502 10185 20136 30137 40260 710011-1 8//// |
| 2023-09-05T08:00 | 8 | 150 | 2 | 20.4 | 14.2 | 1014 | 1026 | 05089 10393 81502 10204 20142 30138 40260 7//// 8//// | |||
| 2023-09-05T09:00 | 8 | 140 | 3 | 21.6 | 14.0 | 1014 | 1026 | 10 | 0 | 1 | 05099 10393 81403 10216 20140 30138 40260 710011-1 8//// |
| 2023-09-05T10:00 | 7 | 160 | 3 | 22.0 | 14.9 | 1013 | 1026 | 05109 10393 71603 10220 20149 30134 40256 7//// 8//// | |||
| 2023-09-05T11:00 | 0 | 150 | 4 | 23.9 | 13.0 | 1013 | 1025 | 05119 10393 01504 10239 20130 30129 40250 7//// 8//// | |||
| 2023-09-05T12:00 | 6 | 150 | 4 | 24.9 | 13.3 | 1012 | 1024 | 10 | 0 | 1 | 05129 10393 61504 10249 20133 30123 40243 710011-1 8//// |
| 2023-09-05T13:00 | 0 | 160 | 2 | 25.5 | 13.3 | 1012 | 1024 | 05139 10393 01602 10255 20133 30119 40239 7//// 8//// | |||
| 2023-09-05T14:00 | 7 | 150 | 3 | 25.9 | 13.4 | 1011 | 1023 | 05149 10393 71503 10259 20134 30113 40233 7//// 8//// | |||
| 2023-09-05T15:00 | 8 | 180 | 2 | 26.0 | 13.3 | 1011 | 1023 | 05159 10393 81802 10260 20133 30107 40227 7//// 8//// | |||
| 2023-09-05T16:00 | 6 | 170 | 2 | 25.8 | 12.9 | 1010 | 1022 | 05169 10393 61702 10258 20129 30105 40225 7//// 8//// | |||
| 2023-09-05T17:00 | 3 | 180 | 1 | 25.0 | 12.9 | 1010 | 1022 | 05179 10393 31801 10250 20129 30103 40223 7//// 8//// | |||
| 2023-09-05T18:00 | 5 | 100 | 2 | 21.7 | 13.7 | 1010 | 1022 | 05189 10393 51002 10217 20137 30103 40224 7//// 8//// | |||
| 2023-09-05T19:00 | 0 | 130 | 2 | 19.6 | 13.9 | 1010 | 1023 | 05199 10393 01302 10196 20139 30105 40227 7//// 8//// | |||
| 2023-09-05T20:00 | 7 | 140 | 2 | 19.4 | 13.9 | 1010 | 1023 | 05209 10393 71402 10194 20139 30105 40227 7//// 8//// | |||
| 2023-09-05T21:00 | 4 | 140 | 2 | 19.7 | 13.1 | 1011 | 1023 | 05219 10393 41402 10197 20131 30106 40228 7//// 8//// | |||
| 2023-09-05T22:00 | 0 | 150 | 2 | 18.3 | 12.8 | 1010 | 1023 | 05229 10393 01502 10183 20128 30105 40228 7//// 8//// | |||
| 2023-09-05T23:00 | 0 | 140 | 2 | 17.4 | 12.5 | 1011 | 1023 | 05239 10393 01402 10174 20125 30108 40231 7//// 8//// | |||
| 2023-09-06T00:00 | 0 | 120 | 2 | 17.9 | 12.3 | 1011 | 1023 | 06009 10393 01202 10179 20123 30107 40230 7//// 8//// | |||
| 2023-09-06T01:00 | 0 | 130 | 2 | 16.2 | 12.1 | 1010 | 1023 | 06019 10393 01302 10162 20121 30104 40228 7//// 8//// | |||
| 2023-09-06T02:00 | 0 | 130 | 3 | 16.1 | 11.9 | 1010 | 1023 | 06029 10393 01303 10161 20119 30105 40229 7//// 8//// | |||
| 2023-09-06T03:00 | 0 | 140 | 3 | 15.4 | 11.8 | 1010 | 1023 | 06039 10393 01403 10154 20118 30103 40227 7//// 8//// | |||
| 2023-09-06T04:00 | 0 | 140 | 2 | 14.8 | 11.7 | 1011 | 1023 | 06049 10393 01402 10148 20117 30106 40230 7//// 8//// | |||
| 2023-09-06T05:00 | 0 | 140 | 3 | 14.7 | 11.8 | 1011 | 1023 | 06059 10393 01403 10147 20118 30109 40233 7//// 8//// | |||
| 2023-09-06T06:00 | 0 | 130 | 2 | 15.9 | 12.1 | 1011 | 1024 | 06069 10393 01302 10159 20121 30112 40236 7//// 8//// | |||
| 2023-09-06T07:00 | 0 | 150 | 2 | 18.0 | 12.9 | 1012 | 1024 | 06079 10393 01502 10180 20129 30115 40238 7//// 8//// | |||
| 2023-09-06T08:00 | 0 | 160 | 1 | 20.4 | 13.1 | 1012 | 1024 | 06089 10393 01601 10204 20131 30116 40238 7//// 8//// | |||
| 2023-09-06T09:00 | 0 | 160 | 1 | 22.6 | 13.1 | 1012 | 1024 | 06099 10393 01601 10226 20131 30118 40239 7//// 8//// | |||
| 2023-09-06T10:00 | 0 | 130 | 2 | 24.2 | 13.2 | 1012 | 1024 | 06109 10393 01302 10242 20132 30121 40242 7//// 8//// | |||
| 2023-09-06T11:00 | 0 | 120 | 2 | 25.8 | 13.0 | 1012 | 1024 | 06119 10393 01202 10258 20130 30119 40239 7//// 8//// | |||
| 2023-09-06T12:00 | 0 | 100 | 2 | 27.1 | 13.0 | 1012 | 1024 | 06129 10393 01002 10271 20130 30116 40235 7//// 8//// | |||
| 2023-09-06T13:00 | 0 | 120 | 2 | 27.7 | 11.4 | 1011 | 1023 | 06139 10393 01202 10277 20114 30113 40232 7//// 8//// | |||
| 2023-09-06T14:00 | 0 | 140 | 2 | 28.2 | 11.6 | 1011 | 1023 | 06149 10393 01402 10282 20116 30111 40230 7//// 8//// | |||
| 2023-09-06T15:00 | 0 | 110 | 2 | 28.1 | 11.7 | 1011 | 1023 | 06159 10393 01102 10281 20117 30107 40226 7//// 8//// | |||
| 2023-09-06T16:00 | 0 | 90 | 2 | 27.6 | 11.2 | 1011 | 1023 | 06169 10393 00902 10276 20112 30107 40226 7//// 8//// | |||
| 2023-09-06T17:00 | 0 | 100 | 2 | 25.0 | 11.5 | 1011 | 1023 | 06179 10393 01002 10250 20115 30107 40227 7//// 8//// | |||
| 2023-09-06T18:00 | 0 | 100 | 2 | 22.8 | 12.1 | 1011 | 1023 | 06189 10393 01002 10228 20121 30110 40231 7//// 8//// | |||
| 2023-09-06T19:00 | 0 | 100 | 2 | 22.4 | 12.4 | 1011 | 1023 | 06199 10393 01002 10224 20124 30113 40234 7//// 8//// | |||
| 2023-09-06T20:00 | 0 | 90 | 3 | 21.6 | 12.6 | 1011 | 1024 | 06209 10393 00903 10216 20126 30114 40236 7//// 8//// | |||
| 2023-09-06T21:00 | 0 | 90 | 3 | 21.0 | 13.0 | 1012 | 1024 | 06219 10393 00903 10210 20130 30116 40238 7//// 8//// | |||
| 2023-09-06T22:00 | 0 | 100 | 3 | 20.5 | 13.2 | 1012 | 1024 | 06229 10393 01003 10205 20132 30119 40241 7//// 8//// | |||
| 2023-09-06T23:00 | 0 | 100 | 3 | 20.0 | 13.2 | 1012 | 1024 | 06239 10393 01003 10200 20132 30121 40243 7//// 8//// | |||
| 2023-09-07T00:00 | 0 | 100 | 3 | 19.4 | 13.1 | 1012 | 1024 | 07009 10393 01003 10194 20131 30121 40244 7//// 8//// | |||
| 2023-09-07T01:00 | 0 | 90 | 3 | 18.1 | 12.8 | 1012 | 1024 | 07019 10393 00903 10181 20128 30122 40245 7//// 8//// | |||
| 2023-09-07T02:00 | 0 | 80 | 4 | 17.7 | 12.8 | 1012 | 1024 | 07029 10393 00804 10177 20128 30121 40244 7//// 8//// | |||
| 2023-09-07T03:00 | 0 | 70 | 4 | 17.2 | 12.8 | 1012 | 1024 | 07039 10393 00704 10172 20128 30121 40244 7//// 8//// | |||
| 2023-09-07T04:00 | 0 | 70 | 4 | 16.7 | 12.1 | 1012 | 1025 | 07049 10393 00704 10167 20121 30122 40246 7//// 8//// | |||
| 2023-09-07T05:00 | 4 | 70 | 4 | 16.6 | 12.0 | 1012 | 1025 | 07059 10393 40704 10166 20120 30122 40246 7//// 8//// | |||
| 2023-09-07T06:00 | 3 | 70 | 3 | 17.3 | 12.0 | 1013 | 1025 | 07069 10393 30703 10173 20120 30127 40251 7//// 8//// | |||
| 2023-09-07T07:00 | 7 | 70 | 3 | 19.2 | 12.4 | 1013 | 1025 | 07079 10393 70703 10192 20124 30129 40252 7//// 8//// | |||
| 2023-09-07T08:00 | 6 | 100 | 3 | 21.8 | 13.2 | 1013 | 1025 | 07089 10393 61003 10218 20132 30130 40252 7//// 8//// | |||
| 2023-09-07T09:00 | 0 | 100 | 4 | 25.0 | 13.4 | 1013 | 1025 | 07099 10393 01004 10250 20134 30131 40251 7//// 8//// | |||
| 2023-09-07T10:00 | 0 | 110 | 5 | 25.8 | 11.5 | 1013 | 1025 | 07109 10393 01105 10258 20115 30128 40248 7//// 8//// | |||
| 2023-09-07T11:00 | 0 | 110 | 5 | 26.4 | 11.4 | 1013 | 1025 | 07119 10393 01105 10264 20114 30126 40246 7//// 8//// | |||
| 2023-09-07T12:00 | 0 | 120 | 4 | 27.3 | 12.2 | 1012 | 1024 | 07129 10393 01204 10273 20122 30123 40242 7//// 8//// | |||
| 2023-09-07T13:00 | 6 | 100 | 5 | 27.5 | 11.8 | 1012 | 1024 | 07139 10393 61005 10275 20118 30121 40240 7//// 8//// | |||
| 2023-09-07T14:00 | 7 | 100 | 5 | 27.8 | 12.0 | 1012 | 1024 | 07149 10393 71005 10278 20120 30118 40237 7//// 8//// | |||
| 2023-09-07T15:00 | 6 | 100 | 4 | 27.4 | 11.4 | 1011 | 1023 | 07159 10393 61004 10274 20114 30114 40233 7//// 8//// | |||
| 2023-09-07T16:00 | 0 | 110 | 4 | 27.0 | 11.1 | 1011 | 1023 | 07169 10393 01104 10270 20111 30113 40232 7//// 8//// | |||
| 2023-09-07T17:00 | 6 | 110 | 3 | 25.7 | 12.5 | 1011 | 1023 | 07179 10393 61103 10257 20125 30111 40231 7//// 8//// | |||
| 2023-09-07T18:00 | 0 | 100 | 3 | 23.1 | 13.2 | 1011 | 1023 | 07189 10393 01003 10231 20132 30111 40232 7//// 8//// | |||
| 2023-09-07T19:00 | 0 | 100 | 3 | 22.1 | 13.0 | 1012 | 1024 | 07199 10393 01003 10221 20130 30115 40236 7//// 8//// | |||
| 2023-09-07T20:00 | 8 | 100 | 3 | 21.4 | 12.8 | 1011 | 1024 | 07209 10393 81003 10214 20128 30114 40236 7//// 8//// | |||
| 2023-09-07T21:00 | 0 | 90 | 4 | 20.5 | 12.8 | 1011 | 1024 | 07219 10393 00904 10205 20128 30113 40235 7//// 8//// | |||
| 2023-09-07T22:00 | 0 | 90 | 4 | 20.2 | 12.8 | 1011 | 1023 | 07229 10393 00904 10202 20128 30112 40234 7//// 8//// | |||
| 2023-09-07T23:00 | 3 | 100 | 4 | 20.0 | 12.8 | 1011 | 1023 | 07239 10393 31004 10200 20128 30110 40232 7//// 8//// | |||
| 2023-09-08T00:00 | 0 | 100 | 5 | 19.4 | 12.7 | 1011 | 1023 | 08009 10393 01005 10194 20127 30109 40231 7//// 8//// | |||
| 2023-09-08T01:00 | 2 | 100 | 4 | 18.5 | 12.6 | 1011 | 1023 | 08019 10393 21004 10185 20126 30108 40231 7//// 8//// | |||
| 2023-09-08T02:00 | 0 | 100 | 4 | 17.7 | 12.5 | 1010 | 1023 | 08029 10393 01004 10177 20125 30105 40228 7//// 8//// | |||
| 2023-09-08T03:00 | 0 | 100 | 4 | 17.3 | 12.5 | 1010 | 1023 | 08039 10393 01004 10173 20125 30103 40226 7//// 8//// | |||
| 2023-09-08T04:00 | 0 | 100 | 4 | 17.0 | 12.4 | 1010 | 1022 | 08049 10393 01004 10170 20124 30102 40225 7//// 8//// | |||
| 2023-09-08T05:00 | 0 | 110 | 4 | 16.6 | 12.3 | 1010 | 1023 | 08059 10393 01104 10166 20123 30102 40226 7//// 8//// | |||
| 2023-09-08T06:00 | 0 | 100 | 4 | 17.3 | 12.2 | 1010 | 1023 | 08069 10393 01004 10173 20122 30104 40227 7//// 8//// | |||
| 2023-09-08T07:00 | 0 | 110 | 4 | 19.0 | 12.9 | 1010 | 1023 | 08079 10393 01104 10190 20129 30104 40226 7//// 8//// | |||
| 2023-09-08T08:00 | 0 | 120 | 3 | 21.4 | 13.9 | 1010 | 1023 | 08089 10393 01203 10214 20139 30105 40226 7//// 8//// | |||
| 2023-09-08T09:00 | 0 | 140 | 4 | 24.0 | 13.8 | 1010 | 1022 | 08099 10393 01404 10240 20138 30103 40223 7//// 8//// | |||
| 2023-09-08T10:00 | 0 | 120 | 4 | 24.9 | 13.1 | 1010 | 1022 | 08109 10393 01204 10249 20131 30100 40220 7//// 8//// | |||
| 2023-09-08T11:00 | 0 | 130 | 3 | 26.2 | 12.6 | 1010 | 1022 | 08119 10393 01303 10262 20126 30098 40217 7//// 8//// | |||
| 2023-09-08T12:00 | 0 | 120 | 2 | 26.5 | 12.1 | 1009 | 1021 | 08129 10393 01202 10265 20121 30094 40213 7//// 8//// | |||
| 2023-09-08T13:00 | 0 | 120 | 3 | 26.9 | 11.1 | 1009 | 1021 | 08139 10393 01203 10269 20111 30090 40209 7//// 8//// | |||
| 2023-09-08T14:00 | 0 | 120 | 2 | 27.8 | 11.6 | 1009 | 1020 | 08149 10393 01202 10278 20116 30086 40205 7//// 8//// | |||
| 2023-09-08T15:00 | 0 | 130 | 3 | 28.2 | 12.7 | 1008 | 1020 | 08159 10393 01303 10282 20127 30081 40200 7//// 8//// | |||
| 2023-09-08T16:00 | 0 | 120 | 2 | 27.9 | 11.8 | 1008 | 1020 | 08169 10393 01202 10279 20118 30079 40198 7//// 8//// | |||
| 2023-09-08T17:00 | 0 | 90 | 2 | 25.1 | 12.9 | 1008 | 1020 | 08179 10393 00902 10251 20129 30076 40196 7//// 8//// | |||
| 2023-09-08T18:00 | 0 | 90 | 3 | 23.1 | 13.5 | 1008 | 1020 | 08189 10393 00903 10231 20135 30076 40196 7//// 8//// | |||
| 2023-09-08T19:00 | 0 | 90 | 3 | 23.0 | 13.3 | 1008 | 1020 | 08199 10393 00903 10230 20133 30078 40199 7//// 8//// | |||
| 2023-09-08T20:00 | 0 | 100 | 4 | 22.4 | 13.6 | 1008 | 1020 | 08209 10393 01004 10224 20136 30078 40199 7//// 8//// | |||
| 2023-09-08T21:00 | 0 | 110 | 4 | 21.5 | 13.8 | 1008 | 1020 | 08219 10393 01104 10215 20138 30076 40197 7//// 8//// | |||
| 2023-09-08T22:00 | 0 | 120 | 2 | 19.4 | 13.6 | 1007 | 1020 | 08229 10393 01202 10194 20136 30074 40196 7//// 8//// | |||
| 2023-09-08T23:00 | 0 | 150 | 3 | 18.6 | 13.4 | 1007 | 1020 | 08239 10393 01503 10186 20134 30074 40196 7//// 8//// | |||
| 2023-09-09T00:00 | 0 | 120 | 3 | 19.8 | 13.6 | 1007 | 1019 | 09009 10393 01203 10198 20136 30072 40194 7//// 8//// | |||
| 2023-09-09T01:00 | 0 | 100 | 3 | 19.8 | 13.3 | 1007 | 1019 | 09019 10393 01003 10198 20133 30070 40192 7//// 8//// | |||
| 2023-09-09T02:00 | 0 | 110 | 3 | 19.2 | 13.4 | 1007 | 1019 | 09029 10393 01103 10192 20134 30069 40191 7//// 8//// | |||
| 2023-09-09T03:00 | 5 | 110 | 3 | 18.2 | 13.6 | 1007 | 1019 | 09039 10393 51103 10182 20136 30067 40189 7//// 8//// | |||
| 2023-09-09T04:00 | 0 | 120 | 3 | 17.7 | 13.3 | 1007 | 1019 | 09049 10393 01203 10177 20133 30066 40189 7//// 8//// | |||
| 2023-09-09T05:00 | 4 | 120 | 3 | 17.0 | 13.0 | 1007 | 1019 | 09059 10393 41203 10170 20130 30068 40191 7//// 8//// | |||
| 2023-09-09T06:00 | 4 | 130 | 3 | 17.7 | 13.0 | 1007 | 1019 | 09069 10393 41303 10177 20130 30069 40192 7//// 8//// | |||
| 2023-09-09T07:00 | 8 | 130 | 3 | 19.0 | 13.3 | 1007 | 1020 | 09079 10393 81303 10190 20133 30073 40195 7//// 8//// | |||
| 2023-09-09T08:00 | 8 | 150 | 3 | 21.3 | 13.6 | 1007 | 1019 | 09089 10393 81503 10213 20136 30073 40194 7//// 8//// | |||
| 2023-09-09T09:00 | 8 | 150 | 2 | 24.7 | 14.1 | 1007 | 1019 | 09099 10393 81502 10247 20141 30074 40194 7//// 8//// | |||
| 2023-09-09T10:00 | 7 | 140 | 2 | 26.5 | 12.8 | 1007 | 1019 | 09109 10393 71402 10265 20128 30072 40191 7//// 8//// | |||
| 2023-09-09T11:00 | 8 | 140 | 4 | 27.5 | 13.0 | 1007 | 1019 | 09119 10393 81404 10275 20130 30069 40188 7//// 8//// | |||
| 2023-09-09T12:00 | 8 | 170 | 3 | 28.3 | 11.4 | 1006 | 1018 | 09129 10393 81703 10283 20114 30065 40183 7//// 8//// | |||
| 2023-09-09T13:00 | 8 | 170 | 3 | 28.8 | 10.6 | 1006 | 1018 | 09139 10393 81703 10288 20106 30061 40179 7//// 8//// | |||
| 2023-09-09T14:00 | 8 | 160 | 3 | 29.3 | 10.6 | 1006 | 1018 | 09149 10393 81603 10293 20106 30059 40177 7//// 8//// | |||
| 2023-09-09T15:00 | 1 | 150 | 2 | 29.4 | 11.1 | 1006 | 1017 | 09159 10393 11502 10294 20111 30056 40174 7//// 8//// | |||
| 2023-09-09T16:00 | 5 | 140 | 2 | 29.4 | 12.1 | 1005 | 1017 | 09169 10393 51402 10294 20121 30052 40170 7//// 8//// | |||
| 2023-09-09T17:00 | 3 | 130 | 1 | 26.1 | 12.9 | 1005 | 1017 | 09179 10393 31301 10261 20129 30053 40172 7//// 8//// | |||
| 2023-09-09T18:00 | 6 | 140 | 1 | 23.9 | 12.5 | 1006 | 1018 | 09189 10393 61401 10239 20125 30055 40175 7//// 8//// | |||
| 2023-09-09T19:00 | 8 | 110 | 2 | 23.0 | 12.6 | 1006 | 1018 | 09199 10393 81102 10230 20126 30059 40179 7//// 8//// | |||
| 2023-09-09T20:00 | 0 | 120 | 2 | 23.5 | 13.1 | 1006 | 1018 | 09209 10393 01202 10235 20131 30059 40179 7//// 8//// | |||
| 2023-09-09T21:00 | 0 | 130 | 3 | 22.6 | 13.3 | 1006 | 1018 | 09219 10393 01303 10226 20133 30058 40178 7//// 8//// | |||
| 2023-09-09T22:00 | 0 | 130 | 2 | 21.0 | 13.2 | 1006 | 1018 | 09229 10393 01302 10210 20132 30058 40179 7//// 8//// | |||
| 2023-09-09T23:00 | 0 | 130 | 3 | 20.7 | 13.2 | 1006 | 1018 | 09239 10393 01303 10207 20132 30055 40176 7//// 8//// | |||
| 2023-09-10T00:00 | 0 | 140 | 2 | 20.1 | 13.1 | 1005 | 1018 | 10009 10393 01402 10201 20131 30054 40175 7//// 8//// | |||
| 2023-09-10T01:00 | 6 | 130 | 2 | 19.3 | 13.2 | 1005 | 1017 | 10019 10393 61302 10193 20132 30052 40174 7//// 8//// | |||
| 2023-09-10T02:00 | 8 | 130 | 3 | 18.4 | 13.2 | 1005 | 1017 | 10029 10393 81303 10184 20132 30051 40173 7//// 8//// | |||
| 2023-09-10T03:00 | 2 | 160 | 3 | 17.1 | 13.2 | 1005 | 1018 | 10039 10393 21603 10171 20132 30052 40175 7//// 8//// | |||
| 2023-09-10T04:00 | 4 | 160 | 3 | 16.1 | 13.3 | 1005 | 1017 | 10049 10393 41603 10161 20133 30050 40173 7//// 8//// | |||
| 2023-09-10T05:00 | 0 | 160 | 3 | 15.5 | 13.7 | 1005 | 1017 | 10059 10393 01603 10155 20137 30051 40174 7//// 8//// | |||
| 2023-09-10T06:00 | 0 | 170 | 1 | 17.0 | 13.8 | 1005 | 1018 | 10069 10393 01701 10170 20138 30054 40177 7//// 8//// | |||
| 2023-09-10T07:00 | 0 | 240 | 1 | 18.8 | 13.5 | 1006 | 1018 | 10079 10393 02401 10188 20135 30057 40179 7//// 8//// | |||
| 2023-09-10T08:00 | 1 | 230 | 1 | 22.2 | 13.8 | 1006 | 1018 | 10089 10393 12301 10222 20138 30058 40179 7//// 8//// | |||
| 2023-09-10T09:00 | 0 | 210 | 1 | 24.1 | 14.5 | 1006 | 1018 | 10099 10393 02101 10241 20145 30058 40178 7//// 8//// | |||
| 2023-09-10T10:00 | 0 | 220 | 2 | 26.4 | 15.0 | 1006 | 1018 | 10109 10393 02202 10264 20150 30057 40176 7//// 8//// | |||
| 2023-09-10T11:00 | 0 | 240 | 2 | 27.9 | 12.6 | 1005 | 1017 | 10119 10393 02402 10279 20126 30054 40172 7//// 8//// | |||
| 2023-09-10T12:00 | 0 | 240 | 3 | 29.0 | 12.2 | 1005 | 1017 | 10129 10393 02403 10290 20122 30051 40169 7//// 8//// | |||
| 2023-09-10T13:00 | 0 | 310 | 2 | 29.7 | 12.7 | 1005 | 1017 | 10 | 0 | 1 | 10139 10393 03102 10297 20127 30049 40167 710011-1 8//// |
| 2023-09-10T14:00 | 0 | 300 | 2 | 30.0 | 11.5 | 1005 | 1016 | 10149 10393 03002 10300 20115 30047 40164 7//// 8//// | |||
| 2023-09-10T15:00 | 0 | 330 | 2 | 30.2 | 11.8 | 1004 | 1016 | 10 | 0 | 1 | 10159 10393 03302 10302 20118 30045 40162 710011-1 8//// |
| 2023-09-10T16:00 | 0 | 320 | 1 | 29.1 | 11.7 | 1004 | 1016 | 10169 10393 03201 10291 20117 30043 40161 7//// 8//// | |||
| 2023-09-10T17:00 | 0 | 340 | 1 | 25.7 | 12.4 | 1004 | 1016 | 10179 10393 03401 10257 20124 30043 40162 7//// 8//// | |||
| 2023-09-10T18:00 | 0 | 360 | 1 | 23.3 | 11.9 | 1004 | 1016 | 10 | 0 | 1 | 10189 10393 03601 10233 20119 30044 40164 710011-1 8//// |
| 2023-09-10T19:00 | 0 | 340 | 2 | 22.9 | 11.2 | 1005 | 1017 | 10 | 0 | 1 | 10199 10393 03402 10229 20112 30046 40166 710011-1 8//// |
| 2023-09-10T20:00 | 0 | 340 | 2 | 21.3 | 11.6 | 1005 | 1017 | 10209 10393 03402 10213 20116 30046 40167 7//// 8//// | |||
| 2023-09-10T21:00 | 0 | 310 | 1 | 20.1 | 12.0 | 1005 | 1017 | 10 | 0 | 1 | 10219 10393 03101 10201 20120 30046 40167 710011-1 8//// |
| 2023-09-10T22:00 | 0 | 60 | 1 | 19.9 | 11.6 | 1004 | 1017 | 10229 10393 00601 10199 20116 30045 40166 7//// 8//// | |||
| 2023-09-10T23:00 | 6 | 160 | 0 | 19.4 | 11.2 | 1004 | 1016 | 10239 10393 61600 10194 20112 30042 40164 7//// 8//// | |||
| 2023-09-11T00:00 | 1 | 250 | 0 | 18.2 | 12.2 | 1004 | 1016 | 10 | 0 | 1 | 11009 10393 12500 10182 20122 30041 40163 710011-1 8//// |
| 2023-09-11T01:00 | 0 | 290 | 1 | 16.9 | 11.7 | 1004 | 1016 | 11019 10393 02901 10169 20117 30038 40161 7//// 8//// | |||
| 2023-09-11T02:00 | 0 | 320 | 2 | 18.4 | 12.2 | 1004 | 1016 | 11029 10393 03202 10184 20122 30035 40157 7//// 8//// | |||
| 2023-09-11T03:00 | 0 | 40 | 1 | 18.0 | 12.5 | 1003 | 1015 | 11039 10393 00401 10180 20125 30032 40154 7//// 8//// | |||
| 2023-09-11T04:00 | 0 | 110 | 1 | 15.4 | 11.6 | 1003 | 1015 | 11049 10393 01101 10154 20116 30030 40153 7//// 8//// | |||
| 2023-09-11T05:00 | 0 | 150 | 2 | 15.2 | 12.3 | 1003 | 1015 | 11059 10393 01502 10152 20123 30030 40153 7//// 8//// | |||
| 2023-09-11T06:00 | 0 | 250 | 2 | 17.1 | 12.3 | 1003 | 1015 | 11069 10393 02502 10171 20123 30030 40152 7//// 8//// | |||
| 2023-09-11T07:00 | 5 | 270 | 2 | 21.2 | 13.0 | 1003 | 1015 | 11079 10393 52702 10212 20130 30030 40151 7//// 8//// | |||
| 2023-09-11T08:00 | 1 | 270 | 1 | 23.7 | 12.8 | 1003 | 1015 | 11089 10393 12701 10237 20128 30031 40151 7//// 8//// | |||
| 2023-09-11T09:00 | 2 | 260 | 1 | 26.7 | 14.1 | 1003 | 1015 | 11099 10393 22601 10267 20141 30030 40148 7//// 8//// | |||
| 2023-09-11T10:00 | 6 | 240 | 2 | 27.6 | 12.6 | 1003 | 1014 | 11109 10393 62402 10276 20126 30026 40144 7//// 8//// | |||
| 2023-09-11T11:00 | 5 | 260 | 2 | 28.2 | 11.0 | 1002 | 1014 | 11119 10393 52602 10282 20110 30020 40138 7//// 8//// | |||
| 2023-09-11T12:00 | 8 | 220 | 3 | 28.8 | 11.2 | 1002 | 1014 | 11129 10393 82203 10288 20112 30017 40135 7//// 8//// | |||
| 2023-09-11T13:00 | 6 | 180 | 2 | 29.7 | 11.6 | 1001 | 1013 | 11139 10393 61802 10297 20116 30014 40131 7//// 8//// | |||
| 2023-09-11T14:00 | 5 | 150 | 2 | 29.7 | 11.0 | 1001 | 1013 | 11149 10393 51502 10297 20110 30010 40127 7//// 8//// | |||
| 2023-09-11T15:00 | 8 | 140 | 2 | 29.6 | 11.6 | 1001 | 1012 | 11159 10393 81402 10296 20116 30007 40124 7//// 8//// | |||
| 2023-09-11T16:00 | 2 | 140 | 2 | 29.3 | 12.4 | 1000 | 1012 | 11169 10393 21402 10293 20124 30004 40121 7//// 8//// | |||
| 2023-09-11T17:00 | 4 | 130 | 2 | 26.0 | 12.9 | 1000 | 1012 | 11179 10393 41302 10260 20129 30004 40122 7//// 8//// | |||
| 2023-09-11T18:00 | 8 | 130 | 2 | 24.1 | 12.7 | 1000 | 1012 | 11189 10393 81302 10241 20127 30004 40123 7//// 8//// | |||
| 2023-09-11T19:00 | 7 | 110 | 1 | 22.8 | 12.8 | 1001 | 1013 | 11199 10393 71101 10228 20128 30007 40127 7//// 8//// | |||
| 2023-09-11T20:00 | 0 | 110 | 1 | 22.0 | 12.0 | 1001 | 1013 | 11209 10393 01101 10220 20120 30008 40128 7//// 8//// | |||
| 2023-09-11T21:00 | 0 | 120 | 3 | 22.1 | 12.5 | 1001 | 1013 | 11219 10393 01203 10221 20125 30006 40126 7//// 8//// | |||
| 2023-09-11T22:00 | 0 | 120 | 3 | 21.0 | 11.8 | 1001 | 1013 | 11229 10393 01203 10210 20118 30006 40127 7//// 8//// | |||
| 2023-09-11T23:00 | 0 | 210 | 1 | 18.4 | 12.4 | 1000 | 1013 | 11239 10393 02101 10184 20124 30005 40127 7//// 8//// | |||
| 2023-09-12T00:00 | 0 | 150 | 2 | 18.9 | 11.7 | 1000 | 1012 | 12009 10393 01502 10189 20117 30003 40124 7//// 8//// | |||
| 2023-09-12T01:00 | 0 | 220 | 2 | 18.9 | 11.8 | 1000 | 1012 | 10 | 0 | 1 | 12019 10393 02202 10189 20118 30002 40123 710011-1 8//// |
| 2023-09-12T02:00 | 0 | 210 | 1 | 17.0 | 11.9 | 1000 | 1012 | 12029 10393 02101 10170 20119 30003 40125 7//// 8//// | |||
| 2023-09-12T03:00 | 0 | 230 | 1 | 16.8 | 11.9 | 1000 | 1012 | 10 | 0 | 1 | 12039 10393 02301 10168 20119 30001 40123 710011-1 8//// |
| 2023-09-12T04:00 | 5 | 140 | 2 | 16.0 | 11.8 | 1000 | 1012 | 12049 10393 51402 10160 20118 39999 40122 7//// 8//// | |||
| 2023-09-12T05:00 | 8 | 140 | 2 | 16.4 | 12.3 | 1000 | 1012 | 12059 10393 81402 10164 20123 30000 40122 7//// 8//// | |||
| 2023-09-12T06:00 | 0 | 150 | 2 | 17.6 | 12.1 | 1000 | 1012 | 10 | 0 | 1 | 12069 10393 01502 10176 20121 30003 40125 710011-1 8//// |
| 2023-09-12T07:00 | 0 | 190 | 1 | 20.3 | 13.9 | 1000 | 1013 | 12079 10393 01901 10203 20139 30005 40126 7//// 8//// | |||
| 2023-09-12T08:00 | 0 | 250 | 2 | 22.8 | 13.7 | 1001 | 1013 | 12089 10393 02502 10228 20137 30008 40128 7//// 8//// | |||
| 2023-09-12T09:00 | 5 | 290 | 2 | 25.6 | 12.7 | 1001 | 1013 | 12099 10393 52902 10256 20127 30010 40129 7//// 8//// | |||
| 2023-09-12T10:00 | 4 | 340 | 1 | 27.5 | 13.4 | 1001 | 1013 | 10 | 0 | 1 | 12109 10393 43401 10275 20134 30008 40126 710011-1 8//// |
| 2023-09-12T11:00 | 8 | 240 | 1 | 28.7 | 12.9 | 1001 | 1012 | 12119 10393 82401 10287 20129 30006 40123 7//// 8//// | |||
| 2023-09-12T12:00 | 5 | 270 | 2 | 29.2 | 10.5 | 1000 | 1012 | 10 | 0 | 1 | 12129 10393 52702 10292 20105 30003 40120 710011-1 8//// |
| 2023-09-12T13:00 | 8 | 340 | 1 | 29.1 | 11.9 | 1000 | 1012 | 12139 10393 83401 10291 20119 30000 40117 7//// 8//// | |||
| 2023-09-12T14:00 | 8 | 260 | 2 | 29.3 | 12.6 | 1000 | 1012 | 12149 10393 82602 10293 20126 39998 40115 7//// 8//// | |||
| 2023-09-12T15:00 | 8 | 40 | 1 | 29.5 | 12.8 | 1000 | 1012 | 12159 10393 80401 10295 20128 39999 40116 7//// 8//// | |||
| 2023-09-12T16:00 | 7 | 10 | 1 | 27.7 | 13.6 | 1000 | 1012 | 12169 10393 70101 10277 20136 39998 40116 7//// 8//// | |||
| 2023-09-12T17:00 | 8 | 120 | 2 | 25.9 | 13.7 | 1000 | 1011 | 12179 10393 81202 10259 20137 39995 40113 7//// 8//// | |||
| 2023-09-12T18:00 | 8 | 150 | 1 | 23.6 | 13.2 | 1000 | 1012 | 12189 10393 81501 10236 20132 39997 40116 7//// 8//// | |||
| 2023-09-12T19:00 | 8 | 360 | 3 | 21.8 | 15.7 | 1000 | 1012 | 12199 10393 83603 10218 20157 30001 40121 7//// 8//// | |||
| 2023-09-12T20:00 | 6 | 360 | 3 | 20.9 | 15.4 | 1000 | 1012 | 12209 10393 63603 10209 20154 30004 40124 7//// 8//// | |||
| 2023-09-12T21:00 | 3 | 20 | 3 | 20.6 | 14.9 | 1000 | 1012 | 12219 10393 30203 10206 20149 30002 40123 7//// 8//// | |||
| 2023-09-12T22:00 | 7 | 30 | 3 | 20.8 | 14.8 | 1000 | 1012 | 12229 10393 70303 10208 20148 39999 40119 7//// 8//// | |||
| 2023-09-12T23:00 | 6 | 60 | 3 | 20.6 | 15.0 | 1000 | 1012 | 12239 10393 60603 10206 20150 39998 40118 7//// 8//// | |||
| 2023-09-13T00:00 | 4 | 60 | 4 | 20.6 | 14.6 | 999 | 1011 | 13009 10393 40604 10206 20146 39991 40111 7//// 8//// | |||
| 2023-09-13T01:00 | 8 | 80 | 3 | 19.7 | 14.5 | 999 | 1011 | 13019 10393 80803 10197 20145 39988 40109 7//// 8//// | |||
| 2023-09-13T02:00 | 8 | 90 | 3 | 19.3 | 14.6 | 998 | 1010 | 13029 10393 80903 10193 20146 39983 40104 7//// 8//// | |||
| 2023-09-13T03:00 | 7 | 310 | 4 | 17.9 | 16.4 | 1000 | 1012 | 16 | 2 | 1 | 13039 10393 73104 10179 20164 39998 40119 71621615 8//// |
| 2023-09-13T04:00 | 8 | 130 | 2 | 17.7 | 16.5 | 998 | 1010 | 12 | 3 | 1 | 13049 10393 81302 10177 20165 39983 40104 712316-1 8//// |
| 2023-09-13T05:00 | 8 | 120 | 3 | 17.3 | 16.2 | 998 | 1010 | 12 | 3 | 1 | 13059 10393 81203 10173 20162 39982 40104 712316-1 8//// |
| 2023-09-13T06:00 | 0 | 170 | 2 | 16.8 | 15.8 | 998 | 1011 | 10 | 0 | 1 | 13069 10393 01702 10168 20158 39984 40106 71001615 8//// |
| 2023-09-13T07:00 | 5 | 220 | 3 | 18.5 | 16.3 | 999 | 1011 | 13079 10393 52203 10185 20163 39989 40110 7//// 8//// | |||
| 2023-09-13T08:00 | 8 | 240 | 5 | 20.0 | 16.7 | 999 | 1011 | 13089 10393 82405 10200 20167 39992 40113 7//// 8//// | |||
| 2023-09-13T09:00 | 7 | 260 | 6 | 19.9 | 16.5 | 1000 | 1012 | 13099 10393 72606 10199 20165 39997 40118 7//// 8//// | |||
| 2023-09-13T10:00 | 7 | 270 | 5 | 20.6 | 15.8 | 1000 | 1012 | 13109 10393 72705 10206 20158 39999 40119 7//// 8//// | |||
| 2023-09-13T11:00 | 6 | 260 | 7 | 21.3 | 15.3 | 1000 | 1012 | 13119 10393 62607 10213 20153 30003 40123 7//// 8//// | |||
| 2023-09-13T12:00 | 7 | 270 | 5 | 21.1 | 15.7 | 1001 | 1013 | 13129 10393 72705 10211 20157 30013 40133 7//// 8//// | |||
| 2023-09-13T13:00 | 6 | 270 | 6 | 22.0 | 15.6 | 1002 | 1014 | 13139 10393 62706 10220 20156 30015 40135 7//// 8//// | |||
| 2023-09-13T14:00 | 7 | 280 | 5 | 21.9 | 15.4 | 1002 | 1014 | 13149 10393 72805 10219 20154 30015 40135 7//// 8//// | |||
| 2023-09-13T15:00 | 7 | 300 | 3 | 21.1 | 15.6 | 1002 | 1014 | 13159 10393 73003 10211 20156 30016 40136 7//// 8//// | |||
| 2023-09-13T16:00 | 3 | 290 | 5 | 22.2 | 15.8 | 1002 | 1014 | 13169 10393 32905 10222 20158 30019 40139 7//// 8//// | |||
| 2023-09-13T17:00 | 7 | 310 | 2 | 20.8 | 16.0 | 1002 | 1014 | 16 | 1 | 1 | 13179 10393 73102 10208 20160 30022 40143 716116-1 8//// |
| 2023-09-13T18:00 | 5 | 310 | 3 | 19.6 | 16.1 | 1003 | 1015 | 12 | 3 | 1 | 13189 10393 53103 10196 20161 30027 40148 712316-1 8//// |
| 2023-09-13T19:00 | 8 | 310 | 3 | 19.2 | 16.4 | 1004 | 1016 | 13199 10393 83103 10192 20164 30035 40156 7//// 8//// | |||
| 2023-09-13T20:00 | 8 | 330 | 2 | 17.9 | 16.8 | 1004 | 1017 | 12 | 3 | 1 | 13209 10393 83302 10179 20168 30044 40166 71231615 8//// |
| 2023-09-13T21:00 | 8 | 330 | 4 | 16.2 | 14.8 | 1005 | 1018 | 15 | 3 | 1 | 13219 10393 83304 10162 20148 30054 40177 71531615 8//// |
| 2023-09-13T22:00 | 7 | 330 | 3 | 15.6 | 14.7 | 1006 | 1018 | 12 | 3 | 1 | 13229 10393 73303 10156 20147 30058 40181 71231615 8//// |
| 2023-09-13T23:00 | 8 | 320 | 3 | 15.1 | 14.0 | 1006 | 1019 | 12 | 2 | 1 | 13239 10393 83203 10151 20140 30063 40187 712215-1 8//// |
| 2023-09-14T00:00 | 7 | 300 | 4 | 14.6 | 13.3 | 1007 | 1019 | 12 | 2 | 1 | 14009 10393 73004 10146 20133 30069 40193 71221615 8//// |
| 2023-09-14T01:00 | 7 | 310 | 3 | 14.0 | 13.1 | 1007 | 1020 | 12 | 2 | 1 | 14019 10393 73103 10140 20131 30072 40196 712215-1 8//// |
| 2023-09-14T02:00 | 8 | 310 | 3 | 13.7 | 12.1 | 1007 | 1020 | 14029 10393 83103 10137 20121 30074 40198 7//// 8//// | |||
| 2023-09-14T03:00 | 8 | 310 | 2 | 13.6 | 12.1 | 1008 | 1020 | 10 | 0 | 1 | 14039 10393 83102 10136 20121 30075 40199 710015-1 8//// |
| 2023-09-14T04:00 | 8 | 310 | 2 | 13.6 | 12.0 | 1008 | 1020 | 10 | 0 | 1 | 14049 10393 83102 10136 20120 30079 40204 710011-1 8//// |
| 2023-09-14T05:00 | 7 | 300 | 3 | 13.0 | 11.7 | 1009 | 1021 | 14059 10393 73003 10130 20117 30086 40211 7//// 8//// | |||
| 2023-09-14T06:00 | 8 | 300 | 3 | 12.7 | 11.3 | 1009 | 1022 | 10 | 0 | 1 | 14069 10393 83003 10127 20113 30093 40218 71001511 8//// |
| 2023-09-14T07:00 | 6 | 300 | 3 | 12.8 | 11.0 | 1010 | 1022 | 14079 10393 63003 10128 20110 30095 40220 7//// 8//// | |||
| 2023-09-14T08:00 | 0 | 310 | 2 | 14.6 | 11.1 | 1010 | 1022 | 14089 10393 03102 10146 20111 30099 40223 7//// 8//// | |||
| 2023-09-14T09:00 | 7 | 340 | 2 | 17.1 | 9.5 | 1010 | 1023 | 14099 10393 73402 10171 20095 30103 40226 7//// 8//// | |||
| 2023-09-14T10:00 | 5 | 300 | 4 | 18.0 | 9.0 | 1010 | 1023 | 14109 10393 53004 10180 20090 30104 40227 7//// 8//// | |||
| 2023-09-14T11:00 | 8 | 290 | 4 | 18.3 | 8.4 | 1010 | 1023 | 14119 10393 82904 10183 20084 30104 40227 7//// 8//// | |||
| 2023-09-14T12:00 | 6 | 330 | 3 | 19.6 | 9.3 | 1010 | 1022 | 14129 10393 63303 10196 20093 30103 40225 7//// 8//// | |||
| 2023-09-14T13:00 | 2 | 330 | 3 | 19.9 | 7.9 | 1010 | 1022 | 14139 10393 23303 10199 20079 30101 40223 7//// 8//// | |||
| 2023-09-14T14:00 | 0 | 310 | 2 | 19.2 | 9.1 | 1010 | 1022 | 14149 10393 03102 10192 20091 30101 40224 7//// 8//// | |||
| 2023-09-14T15:00 | 0 | 320 | 2 | 20.0 | 9.1 | 1010 | 1022 | 14159 10393 03202 10200 20091 30102 40224 7//// 8//// | |||
| 2023-09-14T16:00 | 1 | 310 | 2 | 19.8 | 7.8 | 1010 | 1022 | 14169 10393 13102 10198 20078 30102 40224 7//// 8//// | |||
| 2023-09-14T17:00 | 8 | 30 | 1 | 17.3 | 9.2 | 1010 | 1022 | 14179 10393 80301 10173 20092 30102 40225 7//// 8//// | |||
| 2023-09-14T18:00 | 8 | 40 | 2 | 14.8 | 8.9 | 1010 | 1023 | 10 | 0 | 1 | 14189 10393 80402 10148 20089 30103 40227 710011-1 8//// |
| 2023-09-14T19:00 | 0 | 30 | 2 | 14.5 | 8.3 | 1011 | 1023 | 10 | 0 | 1 | 14199 10393 00302 10145 20083 30107 40232 710011-1 8//// |
| 2023-09-14T20:00 | 0 | 30 | 2 | 13.8 | 8.3 | 1011 | 1023 | 14209 10393 00302 10138 20083 30108 40233 7//// 8//// | |||
| 2023-09-14T21:00 | 0 | 30 | 2 | 13.2 | 8.2 | 1011 | 1023 | 10 | 0 | 1 | 14219 10393 00302 10132 20082 30109 40234 710011-1 8//// |
| 2023-09-14T22:00 | 0 | 30 | 2 | 13.4 | 8.0 | 1011 | 1024 | 14229 10393 00302 10134 20080 30110 40235 7//// 8//// | |||
| 2023-09-14T23:00 | 0 | 50 | 2 | 14.1 | 7.8 | 1011 | 1023 | 14239 10393 00502 10141 20078 30109 40234 7//// 8//// | |||
| 2023-09-15T00:00 | 0 | 60 | 2 | 13.7 | 9.4 | 1011 | 1023 | 10 | 0 | 1 | 15009 10393 00602 10137 20094 30109 40234 710011-1 8//// |
| 2023-09-15T01:00 | 0 | 80 | 3 | 13.7 | 10.1 | 1011 | 1024 | 15019 10393 00803 10137 20101 30110 40235 7//// 8//// | |||
| 2023-09-15T02:00 | 0 | 80 | 3 | 13.3 | 10.2 | 1011 | 1023 | 15029 10393 00803 10133 20102 30108 40233 7//// 8//// | |||
| 2023-09-15T03:00 | 0 | 80 | 3 | 12.7 | 10.1 | 1011 | 1023 | 15039 10393 00803 10127 20101 30109 40234 7//// 8//// | |||
| 2023-09-15T04:00 | 0 | 80 | 3 | 12.0 | 10.1 | 1011 | 1023 | 15049 10393 00803 10120 20101 30108 40234 7//// 8//// | |||
| 2023-09-15T05:00 | 0 | 100 | 3 | 12.0 | 10.2 | 1011 | 1024 | 15059 10393 01003 10120 20102 30109 40235 7//// 8//// | |||
| 2023-09-15T06:00 | 0 | 90 | 3 | 12.8 | 10.3 | 1011 | 1024 | 15069 10393 00903 10128 20103 30111 40236 7//// 8//// | |||
| 2023-09-15T07:00 | 0 | 120 | 3 | 13.9 | 10.6 | 1011 | 1024 | 15079 10393 01203 10139 20106 30114 40239 7//// 8//// | |||
| 2023-09-15T08:00 | 0 | 130 | 1 | 16.3 | 11.7 | 1011 | 1024 | 15089 10393 01301 10163 20117 30113 40237 7//// 8//// | |||
| 2023-09-15T09:00 | 0 | 100 | 3 | 18.4 | 11.9 | 1011 | 1023 | 15099 10393 01003 10184 20119 30111 40234 7//// 8//// | |||
| 2023-09-15T10:00 | 0 | 100 | 2 | 20.0 | 12.1 | 1011 | 1023 | 15109 10393 01002 10200 20121 30109 40231 7//// 8//// | |||
| 2023-09-15T11:00 | 6 | 110 | 4 | 21.6 | 10.2 | 1010 | 1023 | 15119 10393 61104 10216 20102 30104 40226 7//// 8//// | |||
| 2023-09-15T12:00 | 1 | 110 | 4 | 21.6 | 9.6 | 1010 | 1022 | 15129 10393 11104 10216 20096 30101 40223 7//// 8//// | |||
| 2023-09-15T13:00 | 6 | 120 | 4 | 21.7 | 11.2 | 1010 | 1022 | 15139 10393 61204 10217 20112 30095 40216 7//// 8//// | |||
| 2023-09-15T14:00 | 6 | 110 | 4 | 21.8 | 10.8 | 1009 | 1021 | 15149 10393 61104 10218 20108 30089 40210 7//// 8//// | |||
| 2023-09-15T15:00 | 3 | 110 | 4 | 21.0 | 13.0 | 1009 | 1021 | 15159 10393 31104 10210 20130 30087 40208 7//// 8//// | |||
| 2023-09-15T16:00 | 7 | 110 | 4 | 20.8 | 12.7 | 1008 | 1021 | 15169 10393 71104 10208 20127 30085 40207 7//// 8//// | |||
| 2023-09-15T17:00 | 1 | 110 | 3 | 19.5 | 12.7 | 1008 | 1021 | 15179 10393 11103 10195 20127 30084 40206 7//// 8//// | |||
| 2023-09-15T18:00 | 7 | 110 | 3 | 18.7 | 12.3 | 1009 | 1021 | 15189 10393 71103 10187 20123 30087 40209 7//// 8//// | |||
| 2023-09-15T19:00 | 6 | 110 | 3 | 18.2 | 11.9 | 1009 | 1021 | 15199 10393 61103 10182 20119 30087 40210 7//// 8//// | |||
| 2023-09-15T20:00 | 0 | 100 | 4 | 17.4 | 11.5 | 1008 | 1021 | 15209 10393 01004 10174 20115 30085 40208 7//// 8//// | |||
| 2023-09-15T21:00 | 0 | 100 | 4 | 16.6 | 10.6 | 1008 | 1021 | 15219 10393 01004 10166 20106 30084 40207 7//// 8//// | |||
| 2023-09-15T22:00 | 0 | 100 | 4 | 15.9 | 10.0 | 1008 | 1021 | 15229 10393 01004 10159 20100 30084 40208 7//// 8//// | |||
| 2023-09-15T23:00 | 0 | 100 | 4 | 15.5 | 9.6 | 1008 | 1021 | 15239 10393 01004 10155 20096 30083 40207 7//// 8//// | |||
| 2023-09-16T00:00 | 0 | 110 | 4 | 15.0 | 8.9 | 1008 | 1020 | 16009 10393 01104 10150 20089 30081 40205 7//// 8//// | |||
| 2023-09-16T01:00 | 0 | 110 | 4 | 14.8 | 8.5 | 1008 | 1020 | 16019 10393 01104 10148 20085 30079 40203 7//// 8//// | |||
| 2023-09-16T02:00 | 0 | 100 | 4 | 14.1 | 8.3 | 1008 | 1020 | 16029 10393 01004 10141 20083 30077 40201 7//// 8//// | |||
| 2023-09-16T03:00 | 0 | 100 | 4 | 13.4 | 8.0 | 1007 | 1020 | 16039 10393 01004 10134 20080 30073 40198 7//// 8//// | |||
| 2023-09-16T04:00 | 3 | 100 | 5 | 12.9 | 8.1 | 1007 | 1019 | 16049 10393 31005 10129 20081 30069 40194 7//// 8//// | |||
| 2023-09-16T05:00 | 7 | 100 | 5 | 12.4 | 8.1 | 1007 | 1019 | 16059 10393 71005 10124 20081 30067 40192 7//// 8//// | |||
| 2023-09-16T06:00 | 3 | 100 | 4 | 13.0 | 8.7 | 1007 | 1020 | 16069 10393 31004 10130 20087 30070 40195 7//// 8//// | |||
| 2023-09-16T07:00 | 6 | 110 | 5 | 14.1 | 9.4 | 1007 | 1019 | 16079 10393 61105 10141 20094 30069 40193 7//// 8//// | |||
| 2023-09-16T08:00 | 3 | 110 | 3 | 16.5 | 10.5 | 1007 | 1019 | 16089 10393 31103 10165 20105 30068 40191 7//// 8//// | |||
| 2023-09-16T09:00 | 0 | 110 | 3 | 19.2 | 11.1 | 1007 | 1019 | 16099 10393 01103 10192 20111 30067 40189 7//// 8//// | |||
| 2023-09-16T10:00 | 1 | 120 | 3 | 21.6 | 11.7 | 1006 | 1018 | 16109 10393 11203 10216 20117 30062 40183 7//// 8//// | |||
| 2023-09-16T11:00 | 0 | 110 | 3 | 22.7 | 11.2 | 1006 | 1018 | 16119 10393 01103 10227 20112 30056 40176 7//// 8//// | |||
| 2023-09-16T12:00 | 0 | 110 | 3 | 24.3 | 12.3 | 1005 | 1017 | 16129 10393 01103 10243 20123 30050 40170 7//// 8//// | |||
| 2023-09-16T13:00 | 0 | 120 | 3 | 25.2 | 13.1 | 1004 | 1016 | 16139 10393 01203 10252 20131 30045 40164 7//// 8//// | |||
| 2023-09-16T14:00 | 0 | 130 | 4 | 24.8 | 13.1 | 1004 | 1016 | 16149 10393 01304 10248 20131 30041 40160 7//// 8//// | |||
| 2023-09-16T15:00 | 0 | 120 | 4 | 25.3 | 13.4 | 1004 | 1016 | 16159 10393 01204 10253 20134 30036 40155 7//// 8//// | |||
| 2023-09-16T16:00 | 0 | 110 | 4 | 24.5 | 13.4 | 1003 | 1015 | 16169 10393 01104 10245 20134 30033 40152 7//// 8//// | |||
| 2023-09-16T17:00 | 0 | 110 | 3 | 23.2 | 13.8 | 1003 | 1015 | 16179 10393 01103 10232 20138 30034 40154 7//// 8//// | |||
| 2023-09-16T18:00 | 0 | 100 | 3 | 21.6 | 14.0 | 1004 | 1016 | 16189 10393 01003 10216 20140 30035 40156 7//// 8//// | |||
| 2023-09-16T19:00 | 0 | 90 | 3 | 20.8 | 14.0 | 1004 | 1016 | 16199 10393 00903 10208 20140 30037 40158 7//// 8//// | |||
| 2023-09-16T20:00 | 0 | 100 | 4 | 20.2 | 14.0 | 1004 | 1016 | 16209 10393 01004 10202 20140 30035 40156 7//// 8//// | |||
| 2023-09-16T21:00 | 0 | 110 | 3 | 19.8 | 13.9 | 1003 | 1015 | 16219 10393 01103 10198 20139 30033 40154 7//// 8//// | |||
| 2023-09-16T22:00 | 0 | 110 | 3 | 19.3 | 13.9 | 1003 | 1015 | 16229 10393 01103 10193 20139 30032 40153 7//// 8//// | |||
| 2023-09-16T23:00 | 5 | 120 | 3 | 18.7 | 13.9 | 1003 | 1015 | 16239 10393 51203 10187 20139 30031 40153 7//// 8//// | |||
| 2023-09-17T00:00 | 7 | 130 | 3 | 17.7 | 13.7 | 1003 | 1015 | 17009 10393 71303 10177 20137 30031 40153 7//// 8//// | |||
| 2023-09-17T01:00 | 3 | 140 | 3 | 16.8 | 13.6 | 1003 | 1015 | 17019 10393 31403 10168 20136 30030 40152 7//// 8//// | |||
| 2023-09-17T02:00 | 6 | 130 | 2 | 16.1 | 13.5 | 1003 | 1015 | 17029 10393 61302 10161 20135 30030 40153 7//// 8//// | |||
| 2023-09-17T03:00 | 5 | 160 | 2 | 15.2 | 13.3 | 1003 | 1015 | 17039 10393 51602 10152 20133 30030 40153 7//// 8//// | |||
| 2023-09-17T04:00 | 8 | 220 | 2 | 14.6 | 13.2 | 1003 | 1015 | 17049 10393 82202 10146 20132 30030 40153 7//// 8//// | |||
| 2023-09-17T05:00 | 8 | 160 | 2 | 13.7 | 12.6 | 1003 | 1016 | 17059 10393 81602 10137 20126 30032 40156 7//// 8//// | |||
| 2023-09-17T06:00 | 8 | 150 | 1 | 15.6 | 13.5 | 1004 | 1016 | 17069 10393 81501 10156 20135 30037 40160 7//// 8//// | |||
| 2023-09-17T07:00 | 8 | 130 | 1 | 16.5 | 13.7 | 1004 | 1016 | 17079 10393 81301 10165 20137 30041 40164 7//// 8//// | |||
| 2023-09-17T08:00 | 8 | 160 | 1 | 19.4 | 14.3 | 1004 | 1017 | 17089 10393 81601 10194 20143 30044 40166 7//// 8//// | |||
| 2023-09-17T09:00 | 8 | 100 | 2 | 21.9 | 14.5 | 1004 | 1016 | 17099 10393 81002 10219 20145 30043 40163 7//// 8//// | |||
| 2023-09-17T10:00 | 8 | 140 | 2 | 23.6 | 14.6 | 1004 | 1016 | 17109 10393 81402 10236 20146 30043 40163 7//// 8//// | |||
| 2023-09-17T11:00 | 0 | 140 | 2 | 24.9 | 13.4 | 1004 | 1016 | 17119 10393 01402 10249 20134 30042 40161 7//// 8//// | |||
| 2023-09-17T12:00 | 8 | 220 | 2 | 25.4 | 12.8 | 1004 | 1016 | 17129 10393 82202 10254 20128 30042 40161 7//// 8//// | |||
| 2023-09-17T13:00 | 6 | 150 | 2 | 25.6 | 13.4 | 1004 | 1016 | 17139 10393 61502 10256 20134 30042 40161 7//// 8//// | |||
| 2023-09-17T14:00 | 8 | 140 | 1 | 25.8 | 14.3 | 1004 | 1016 | 17149 10393 81401 10258 20143 30039 40158 7//// 8//// | |||
| 2023-09-17T15:00 | 6 | 150 | 1 | 26.9 | 13.3 | 1004 | 1015 | 17159 10393 61501 10269 20133 30036 40154 7//// 8//// | |||
| 2023-09-17T16:00 | 4 | 110 | 1 | 25.9 | 14.0 | 1004 | 1016 | 17169 10393 41101 10259 20140 30036 40155 7//// 8//// | |||
| 2023-09-17T17:00 | 0 | 80 | 2 | 23.3 | 14.3 | 1004 | 1016 | 17179 10393 00802 10233 20143 30035 40155 7//// 8//// | |||
| 2023-09-17T18:00 | 0 | 80 | 2 | 21.3 | 14.4 | 1004 | 1016 | 17189 10393 00802 10213 20144 30035 40156 7//// 8//// | |||
| 2023-09-17T19:00 | 0 | 110 | 3 | 22.0 | 14.8 | 1003 | 1015 | 17199 10393 01103 10220 20148 30034 40154 7//// 8//// | |||
| 2023-09-17T20:00 | 0 | 100 | 3 | 21.6 | 14.4 | 1003 | 1015 | 17209 10393 01003 10216 20144 30029 40149 7//// 8//// | |||
| 2023-09-17T21:00 | 0 | 110 | 4 | 21.1 | 14.0 | 1003 | 1015 | 17219 10393 01104 10211 20140 30028 40149 7//// 8//// | |||
| 2023-09-17T22:00 | 6 | 110 | 4 | 20.6 | 13.6 | 1002 | 1014 | 17229 10393 61104 10206 20136 30024 40145 7//// 8//// | |||
| 2023-09-17T23:00 | 8 | 120 | 3 | 19.6 | 13.6 | 1002 | 1014 | 17239 10393 81203 10196 20136 30021 40142 7//// 8//// | |||
| 2023-09-18T00:00 | 8 | 130 | 3 | 19.0 | 13.5 | 1002 | 1014 | 18009 10393 81303 10190 20135 30020 40141 7//// 8//// | |||
| 2023-09-18T01:00 | 8 | 130 | 3 | 18.2 | 13.5 | 1001 | 1014 | 18019 10393 81303 10182 20135 30014 40136 7//// 8//// | |||
| 2023-09-18T02:00 | 8 | 120 | 3 | 18.3 | 13.7 | 1001 | 1013 | 18029 10393 81203 10183 20137 30011 40133 7//// 8//// | |||
| 2023-09-18T03:00 | 2 | 110 | 4 | 18.4 | 13.5 | 1000 | 1013 | 18039 10393 21104 10184 20135 30004 40126 7//// 8//// | |||
| 2023-09-18T04:00 | 0 | 110 | 4 | 18.4 | 13.4 | 1000 | 1012 | 18049 10393 01104 10184 20134 39998 40119 7//// 8//// | |||
| 2023-09-18T05:00 | 2 | 110 | 4 | 18.2 | 13.5 | 999 | 1012 | 18059 10393 21104 10182 20135 39994 40115 7//// 8//// | |||
| 2023-09-18T06:00 | 8 | 110 | 4 | 18.4 | 13.5 | 999 | 1011 | 18069 10393 81104 10184 20135 39991 40112 7//// 8//// | |||
| 2023-09-18T07:00 | 5 | 110 | 3 | 19.6 | 14.4 | 998 | 1010 | 18079 10393 51103 10196 20144 39984 40105 7//// 8//// | |||
| 2023-09-18T08:00 | 5 | 140 | 4 | 23.0 | 14.9 | 998 | 1010 | 18089 10393 51404 10230 20149 39978 40097 7//// 8//// | |||
| 2023-09-18T09:00 | 3 | 150 | 4 | 25.1 | 14.4 | 998 | 1009 | 18099 10393 31504 10251 20144 39975 40093 7//// 8//// | |||
| 2023-09-18T10:00 | 4 | 140 | 4 | 26.3 | 13.2 | 996 | 1008 | 18109 10393 41404 10263 20132 39965 40083 7//// 8//// | |||
| 2023-09-18T11:00 | 7 | 160 | 3 | 26.6 | 14.1 | 996 | 1008 | 18119 10393 71603 10266 20141 39962 40080 7//// 8//// | |||
| 2023-09-18T12:00 | 8 | 150 | 3 | 26.2 | 14.6 | 996 | 1008 | 18129 10393 81503 10262 20146 39961 40079 7//// 8//// | |||
| 2023-09-18T13:00 | 8 | 210 | 4 | 27.4 | 14.6 | 996 | 1008 | 18139 10393 82104 10274 20146 39959 40076 7//// 8//// | |||
| 2023-09-18T14:00 | 8 | 230 | 4 | 26.0 | 14.8 | 996 | 1008 | 18149 10393 82304 10260 20148 39959 40077 7//// 8//// | |||
| 2023-09-18T15:00 | 7 | 220 | 3 | 24.4 | 15.9 | 996 | 1008 | 16 | 1 | 1 | 18159 10393 72203 10244 20159 39961 40079 71611615 8//// |
| 2023-09-18T16:00 | 8 | 200 | 2 | 23.3 | 15.9 | 996 | 1008 | 12 | 3 | 1 | 18169 10393 82002 10233 20159 39957 40076 71231615 8//// |
| 2023-09-18T17:00 | 8 | 230 | 6 | 23.3 | 15.2 | 996 | 1008 | 12 | 3 | 1 | 18179 10393 82306 10233 20152 39959 40078 71231615 8//// |
| 2023-09-18T18:00 | 8 | 240 | 4 | 22.1 | 14.9 | 996 | 1008 | 10 | 0 | 1 | 18189 10393 82404 10221 20149 39957 40076 71001615 8//// |
| 2023-09-18T19:00 | 8 | 230 | 5 | 21.1 | 14.9 | 996 | 1008 | 16 | 1 | 1 | 18199 10393 82305 10211 20149 39957 40077 716116-1 8//// |
| 2023-09-18T20:00 | 7 | 220 | 4 | 18.5 | 16.2 | 996 | 1008 | 16 | 1 | 1 | 18209 10393 72204 10185 20162 39959 40080 71611616 8//// |
| 2023-09-18T21:00 | 8 | 200 | 3 | 18.1 | 16.3 | 996 | 1008 | 16 | 1 | 1 | 18219 10393 82003 10181 20163 39958 40079 71611615 8//// |
| 2023-09-18T22:00 | 8 | 170 | 2 | 17.5 | 16.4 | 996 | 1008 | 12 | 3 | 1 | 18229 10393 81702 10175 20164 39960 40081 712316-1 8//// |
| 2023-09-18T23:00 | 8 | 170 | 2 | 16.9 | 16.1 | 996 | 1008 | 18239 10393 81702 10169 20161 39955 40076 7//// 8//// | |||
| 2023-09-19T00:00 | 8 | 180 | 3 | 16.6 | 15.5 | 995 | 1008 | 10 | 0 | 1 | 19009 10393 81803 10166 20155 39954 40076 71001615 8//// |
| 2023-09-19T01:00 | 8 | 190 | 3 | 16.5 | 15.1 | 995 | 1007 | 19019 10393 81903 10165 20151 39952 40074 7//// 8//// | |||
| 2023-09-19T02:00 | 7 | 190 | 2 | 16.0 | 14.7 | 995 | 1007 | 19029 10393 71902 10160 20147 39950 40072 7//// 8//// | |||
| 2023-09-19T03:00 | 8 | 230 | 3 | 15.9 | 14.4 | 995 | 1007 | 19039 10393 82303 10159 20144 39952 40074 7//// 8//// | |||
| 2023-09-19T04:00 | 8 | 220 | 4 | 16.1 | 14.5 | 995 | 1008 | 19049 10393 82204 10161 20145 39954 40076 7//// 8//// | |||
| 2023-09-19T05:00 | 8 | 240 | 3 | 15.3 | 14.2 | 996 | 1008 | 19059 10393 82403 10153 20142 39961 40083 7//// 8//// | |||
| 2023-09-19T06:00 | 8 | 260 | 5 | 16.3 | 13.8 | 997 | 1009 | 19069 10393 82605 10163 20138 39967 40089 7//// 8//// | |||
| 2023-09-19T07:00 | 7 | 270 | 5 | 16.5 | 12.7 | 997 | 1010 | 19079 10393 72705 10165 20127 39973 40095 7//// 8//// | |||
| 2023-09-19T08:00 | 8 | 270 | 5 | 17.1 | 11.8 | 998 | 1010 | 19089 10393 82705 10171 20118 39980 40102 7//// 8//// | |||
| 2023-09-19T09:00 | 6 | 260 | 7 | 18.7 | 10.8 | 998 | 1010 | 19099 10393 62607 10187 20108 39984 40105 7//// 8//// | |||
| 2023-09-19T10:00 | 8 | 270 | 8 | 19.4 | 7.3 | 999 | 1011 | 19109 10393 82708 10194 20073 39988 40109 7//// 8//// | |||
| 2023-09-19T11:00 | 4 | 260 | 9 | 20.0 | 6.1 | 999 | 1011 | 19119 10393 42609 10200 20061 39991 40112 7//// 8//// | |||
| 2023-09-19T12:00 | 7 | 250 | 7 | 20.1 | 7.8 | 999 | 1011 | 19129 10393 72507 10201 20078 39990 40111 7//// 8//// | |||
| 2023-09-19T13:00 | 8 | 250 | 8 | 20.0 | 7.2 | 999 | 1011 | 19139 10393 82508 10200 20072 39991 40112 7//// 8//// | |||
| 2023-09-19T14:00 | 8 | 240 | 7 | 20.5 | 7.3 | 999 | 1011 | 19149 10393 82407 10205 20073 39990 40111 7//// 8//// | |||
| 2023-09-19T15:00 | 7 | 260 | 6 | 20.7 | 7.2 | 999 | 1011 | 19159 10393 72606 10207 20072 39990 40111 7//// 8//// | |||
| 2023-09-19T16:00 | 8 | 250 | 6 | 19.7 | 6.6 | 999 | 1011 | 19169 10393 82506 10197 20066 39990 40111 7//// 8//// | |||
| 2023-09-19T17:00 | 8 | 240 | 4 | 19.1 | 6.9 | 999 | 1011 | 19179 10393 82404 10191 20069 39990 40111 7//// 8//// | |||
| 2023-09-19T18:00 | 8 | 230 | 3 | 16.9 | 7.3 | 999 | 1011 | 19189 10393 82303 10169 20073 39991 40113 7//// 8//// | |||
| 2023-09-19T19:00 | 8 | 210 | 3 | 16.1 | 7.6 | 1000 | 1012 | 19199 10393 82103 10161 20076 39998 40121 7//// 8//// | |||
| 2023-09-19T20:00 | 8 | 220 | 4 | 15.7 | 7.8 | 1000 | 1012 | 19209 10393 82204 10157 20078 30000 40123 7//// 8//// | |||
| 2023-09-19T21:00 | 8 | 230 | 4 | 15.5 | 7.8 | 1000 | 1012 | 19219 10393 82304 10155 20078 30000 40123 7//// 8//// | |||
| 2023-09-19T22:00 | 7 | 230 | 4 | 14.9 | 7.8 | 1000 | 1012 | 19229 10393 72304 10149 20078 39999 40122 7//// 8//// | |||
| 2023-09-19T23:00 | 1 | 230 | 4 | 14.2 | 7.8 | 1000 | 1012 | 19239 10393 12304 10142 20078 39996 40119 7//// 8//// | |||
| 2023-09-20T00:00 | 8 | 220 | 4 | 13.9 | 7.8 | 1000 | 1012 | 20009 10393 82204 10139 20078 39995 40119 7//// 8//// | |||
| 2023-09-20T01:00 | 8 | 220 | 4 | 13.7 | 7.8 | 1000 | 1012 | 20019 10393 82204 10137 20078 39995 40119 7//// 8//// | |||
| 2023-09-20T02:00 | 7 | 230 | 4 | 13.3 | 7.9 | 999 | 1012 | 20029 10393 72304 10133 20079 39994 40118 7//// 8//// | |||
| 2023-09-20T03:00 | 8 | 220 | 4 | 13.8 | 8.4 | 1000 | 1012 | 20039 10393 82204 10138 20084 39995 40119 7//// 8//// | |||
| 2023-09-20T04:00 | 8 | 210 | 3 | 14.0 | 9.0 | 999 | 1012 | 20049 10393 82103 10140 20090 39994 40117 7//// 8//// | |||
| 2023-09-20T05:00 | 8 | 220 | 4 | 14.4 | 9.5 | 1000 | 1012 | 12 | 3 | 1 | 20059 10393 82204 10144 20095 39996 40119 712316-1 8//// |
| 2023-09-20T06:00 | 8 | 220 | 4 | 15.0 | 10.0 | 1000 | 1012 | 10 | 0 | 1 | 20069 10393 82204 10150 20100 39999 40122 710016-1 8//// |
| 2023-09-20T07:00 | 8 | 220 | 4 | 16.0 | 10.4 | 1000 | 1012 | 20079 10393 82204 10160 20104 30002 40125 7//// 8//// | |||
| 2023-09-20T08:00 | 8 | 220 | 5 | 18.1 | 11.3 | 1000 | 1013 | 20089 10393 82205 10181 20113 30004 40126 7//// 8//// | |||
| 2023-09-20T09:00 | 7 | 220 | 6 | 20.0 | 12.1 | 1000 | 1013 | 20099 10393 72206 10200 20121 30005 40126 7//// 8//// | |||
| 2023-09-20T10:00 | 8 | 230 | 5 | 20.0 | 12.0 | 1000 | 1012 | 20109 10393 82305 10200 20120 30004 40125 7//// 8//// | |||
| 2023-09-20T11:00 | 6 | 210 | 5 | 22.0 | 12.4 | 1000 | 1012 | 20119 10393 62105 10220 20124 30001 40121 7//// 8//// | |||
| 2023-09-20T12:00 | 8 | 220 | 5 | 23.3 | 12.4 | 999 | 1011 | 20129 10393 82205 10233 20124 39994 40113 7//// 8//// | |||
| 2023-09-20T13:00 | 8 | 230 | 5 | 23.9 | 12.2 | 999 | 1011 | 20139 10393 82305 10239 20122 39990 40109 7//// 8//// | |||
| 2023-09-20T14:00 | 6 | 220 | 4 | 23.8 | 12.0 | 999 | 1011 | 20149 10393 62204 10238 20120 39987 40106 7//// 8//// | |||
| 2023-09-20T15:00 | 8 | 210 | 3 | 24.6 | 12.0 | 998 | 1010 | 20159 10393 82103 10246 20120 39982 40101 7//// 8//// | |||
| 2023-09-20T16:00 | 8 | 210 | 2 | 24.1 | 12.7 | 998 | 1010 | 20169 10393 82102 10241 20127 39979 40098 7//// 8//// | |||
| 2023-09-20T17:00 | 8 | 210 | 3 | 22.7 | 12.1 | 998 | 1010 | 20179 10393 82103 10227 20121 39977 40096 7//// 8//// | |||
| 2023-09-20T18:00 | 1 | 190 | 2 | 20.7 | 12.0 | 998 | 1010 | 20189 10393 11902 10207 20120 39978 40098 7//// 8//// | |||
| 2023-09-20T19:00 | 3 | 140 | 2 | 19.1 | 11.1 | 998 | 1010 | 20199 10393 31402 10191 20111 39978 40099 7//// 8//// | |||
| 2023-09-20T20:00 | 0 | 150 | 2 | 18.0 | 11.9 | 998 | 1010 | 20209 10393 01502 10180 20119 39977 40098 7//// 8//// | |||
| 2023-09-20T21:00 | 0 | 130 | 2 | 17.6 | 12.3 | 997 | 1010 | 20219 10393 01302 10176 20123 39973 40095 7//// 8//// | |||
| 2023-09-20T22:00 | 0 | 140 | 3 | 17.7 | 12.1 | 997 | 1009 | 20229 10393 01403 10177 20121 39969 40090 7//// 8//// | |||
| 2023-09-20T23:00 | 5 | 150 | 4 | 17.0 | 11.9 | 997 | 1009 | 20239 10393 51504 10170 20119 39966 40088 7//// 8//// | |||
| 2023-09-21T00:00 | 2 | 140 | 3 | 16.1 | 11.9 | 996 | 1009 | 21009 10393 21403 10161 20119 39965 40087 7//// 8//// | |||
| 2023-09-21T01:00 | 2 | 140 | 3 | 15.5 | 11.8 | 996 | 1008 | 21019 10393 21403 10155 20118 39962 40084 7//// 8//// | |||
| 2023-09-21T02:00 | 8 | 130 | 3 | 15.7 | 11.9 | 996 | 1008 | 21029 10393 81303 10157 20119 39957 40079 7//// 8//// | |||
| 2023-09-21T03:00 | 8 | 130 | 3 | 15.7 | 11.8 | 995 | 1007 | 21039 10393 81303 10157 20118 39951 40073 7//// 8//// | |||
| 2023-09-21T04:00 | 5 | 130 | 3 | 15.1 | 11.7 | 995 | 1007 | 21049 10393 51303 10151 20117 39948 40070 7//// 8//// | |||
| 2023-09-21T05:00 | 0 | 130 | 3 | 14.6 | 11.7 | 994 | 1007 | 21059 10393 01303 10146 20117 39944 40066 7//// 8//// | |||
| 2023-09-21T06:00 | 5 | 130 | 3 | 14.9 | 12.1 | 994 | 1006 | 21069 10393 51303 10149 20121 39943 40065 7//// 8//// | |||
| 2023-09-21T07:00 | 8 | 130 | 3 | 16.4 | 12.9 | 994 | 1006 | 21079 10393 81303 10164 20129 39941 40063 7//// 8//// | |||
| 2023-09-21T08:00 | 6 | 140 | 3 | 18.2 | 13.8 | 994 | 1006 | 21089 10393 61403 10182 20138 39940 40061 7//// 8//// | |||
| 2023-09-21T09:00 | 4 | 130 | 3 | 20.5 | 14.1 | 994 | 1006 | 21099 10393 41303 10205 20141 39937 40057 7//// 8//// | |||
| 2023-09-21T10:00 | 0 | 150 | 2 | 23.8 | 13.9 | 993 | 1005 | 21109 10393 01502 10238 20139 39932 40050 7//// 8//// | |||
| 2023-09-21T11:00 | 6 | 140 | 4 | 25.7 | 13.5 | 993 | 1004 | 10 | 0 | 1 | 21119 10393 61404 10257 20135 39926 40044 710011-1 8//// |
| 2023-09-21T12:00 | 1 | 160 | 3 | 26.8 | 13.9 | 992 | 1004 | 10 | 0 | 1 | 21129 10393 11603 10268 20139 39918 40035 710011-1 8//// |
| 2023-09-21T13:00 | 1 | 170 | 3 | 27.9 | 13.7 | 991 | 1003 | 21139 10393 11703 10279 20137 39910 40027 7//// 8//// | |||
| 2023-09-21T14:00 | 0 | 180 | 3 | 27.8 | 13.1 | 990 | 1002 | 21149 10393 01803 10278 20131 39904 40021 7//// 8//// | |||
| 2023-09-21T15:00 | 3 | 120 | 4 | 27.9 | 13.7 | 990 | 1002 | 21159 10393 31204 10279 20137 39899 40015 7//// 8//// | |||
| 2023-09-21T16:00 | 3 | 120 | 3 | 26.4 | 14.9 | 989 | 1001 | 21169 10393 31203 10264 20149 39894 40011 7//// 8//// | |||
| 2023-09-21T17:00 | 1 | 120 | 2 | 24.0 | 15.0 | 989 | 1001 | 21179 10393 11202 10240 20150 39891 40009 7//// 8//// | |||
| 2023-09-21T18:00 | 7 | 140 | 2 | 22.3 | 15.4 | 989 | 1001 | 21189 10393 71402 10223 20154 39889 40007 7//// 8//// | |||
| 2023-09-21T19:00 | 0 | 140 | 3 | 22.0 | 14.8 | 989 | 1001 | 21199 10393 01403 10220 20148 39887 40006 7//// 8//// | |||
| 2023-09-21T20:00 | 0 | 150 | 3 | 20.8 | 14.0 | 988 | 1000 | 21209 10393 01503 10208 20140 39881 40000 7//// 8//// | |||
| 2023-09-21T21:00 | 7 | 120 | 3 | 20.4 | 14.2 | 988 | 1000 | 21219 10393 71203 10204 20142 39876 49995 7//// 8//// | |||
| 2023-09-21T22:00 | 8 | 140 | 3 | 19.3 | 14.4 | 987 | 999 | 21229 10393 81403 10193 20144 39872 49991 7//// 8//// | |||
| 2023-09-21T23:00 | 7 | 140 | 3 | 17.8 | 14.2 | 987 | 999 | 21239 10393 71403 10178 20142 39867 49987 7//// 8//// | |||
| 2023-09-22T00:00 | 6 | 150 | 3 | 17.6 | 14.2 | 987 | 999 | 22009 10393 61503 10176 20142 39868 49988 7//// 8//// | |||
| 2023-09-22T01:00 | 4 | 140 | 3 | 17.1 | 14.2 | 987 | 999 | 22019 10393 41403 10171 20142 39868 49988 7//// 8//// | |||
| 2023-09-22T02:00 | 6 | 190 | 3 | 16.8 | 14.2 | 987 | 999 | 22029 10393 61903 10168 20142 39871 49992 7//// 8//// | |||
| 2023-09-22T03:00 | 8 | 200 | 3 | 16.9 | 14.2 | 988 | 1000 | 22039 10393 82003 10169 20142 39878 49999 7//// 8//// | |||
| 2023-09-22T04:00 | 8 | 230 | 5 | 17.1 | 14.1 | 988 | 1000 | 22049 10393 82305 10171 20141 39883 40004 7//// 8//// | |||
| 2023-09-22T05:00 | 8 | 240 | 3 | 17.2 | 13.9 | 989 | 1001 | 22059 10393 82403 10172 20139 39889 40010 7//// 8//// | |||
| 2023-09-22T06:00 | 8 | 240 | 6 | 16.9 | 14.0 | 990 | 1002 | 12 | 3 | 1 | 22069 10393 82406 10169 20140 39896 40017 71231615 8//// |
| 2023-09-22T07:00 | 8 | 220 | 4 | 15.8 | 14.7 | 991 | 1003 | 12 | 3 | 1 | 22079 10393 82204 10158 20147 39908 40029 71231615 8//// |
| 2023-09-22T08:00 | 8 | 220 | 3 | 15.9 | 14.9 | 991 | 1004 | 16 | 1 | 1 | 22089 10393 82203 10159 20149 39914 40035 71611615 8//// |
| 2023-09-22T09:00 | 8 | 230 | 3 | 16.3 | 15.0 | 992 | 1004 | 12 | 3 | 1 | 22099 10393 82303 10163 20150 39922 40043 71231615 8//// |
| 2023-09-22T10:00 | 8 | 220 | 3 | 16.2 | 14.7 | 993 | 1005 | 16 | 1 | 1 | 22109 10393 82203 10162 20147 39926 40047 716116-1 8//// |
| 2023-09-22T11:00 | 8 | 230 | 4 | 17.2 | 15.2 | 993 | 1005 | 12 | 3 | 1 | 22119 10393 82304 10172 20152 39928 40049 71231615 8//// |
| 2023-09-22T12:00 | 8 | 240 | 3 | 16.8 | 14.9 | 993 | 1005 | 16 | 1 | 1 | 22129 10393 82403 10168 20149 39929 40050 71611615 8//// |
| 2023-09-22T13:00 | 7 | 230 | 4 | 16.6 | 15.4 | 994 | 1006 | 16 | 1 | 1 | 22139 10393 72304 10166 20154 39935 40056 71611615 8//// |
| 2023-09-22T14:00 | 7 | 240 | 4 | 15.2 | 12.7 | 994 | 1006 | 16 | 1 | 1 | 22149 10393 72404 10152 20127 39937 40059 71611616 8//// |
| 2023-09-22T15:00 | 8 | 210 | 2 | 15.2 | 13.8 | 994 | 1006 | 16 | 1 | 1 | 22159 10393 82102 10152 20138 39938 40060 71611615 8//// |
| 2023-09-22T16:00 | 8 | 190 | 2 | 15.5 | 14.6 | 994 | 1006 | 12 | 3 | 1 | 22169 10393 81902 10155 20146 39938 40060 71231615 8//// |
| 2023-09-22T17:00 | 8 | 160 | 1 | 15.3 | 13.8 | 994 | 1006 | 22179 10393 81601 10153 20138 39939 40061 7//// 8//// | |||
| 2023-09-22T18:00 | 8 | 200 | 2 | 15.0 | 13.8 | 995 | 1007 | 10 | 0 | 1 | 22189 10393 82002 10150 20138 39948 40070 71001615 8//// |
| 2023-09-22T19:00 | 8 | 190 | 2 | 14.7 | 13.9 | 995 | 1007 | 22199 10393 81902 10147 20139 39952 40074 7//// 8//// | |||
| 2023-09-22T20:00 | 8 | 160 | 2 | 14.5 | 13.7 | 994 | 1007 | 22209 10393 81602 10145 20137 39945 40067 7//// 8//// | |||
| 2023-09-22T21:00 | 8 | 180 | 2 | 14.4 | 13.2 | 995 | 1007 | 22219 10393 81802 10144 20132 39949 40072 7//// 8//// | |||
| 2023-09-22T22:00 | 8 | 180 | 2 | 13.8 | 12.7 | 995 | 1008 | 22229 10393 81802 10138 20127 39952 40075 7//// 8//// | |||
| 2023-09-22T23:00 | 8 | 160 | 2 | 13.7 | 12.4 | 995 | 1008 | 22239 10393 81602 10137 20124 39953 40076 7//// 8//// | |||
| 2023-09-23T00:00 | 8 | 190 | 2 | 13.6 | 12.3 | 996 | 1008 | 23009 10393 81902 10136 20123 39955 40078 7//// 8//// | |||
| 2023-09-23T01:00 | 8 | 170 | 2 | 13.2 | 12.1 | 996 | 1008 | 23019 10393 81702 10132 20121 39957 40080 7//// 8//// | |||
| 2023-09-23T02:00 | 8 | 180 | 2 | 12.8 | 11.8 | 996 | 1008 | 23029 10393 81802 10128 20118 39957 40080 7//// 8//// | |||
| 2023-09-23T03:00 | 8 | 180 | 3 | 12.6 | 11.3 | 996 | 1009 | 23039 10393 81803 10126 20113 39962 40086 7//// 8//// | |||
| 2023-09-23T04:00 | 8 | 220 | 3 | 12.5 | 10.9 | 997 | 1009 | 23049 10393 82203 10125 20109 39967 40091 7//// 8//// | |||
| 2023-09-23T05:00 | 3 | 230 | 4 | 11.8 | 10.4 | 997 | 1010 | 23059 10393 32304 10118 20104 39974 40098 7//// 8//// | |||
| 2023-09-23T06:00 | 1 | 230 | 3 | 11.8 | 10.2 | 998 | 1011 | 23069 10393 12303 10118 20102 39983 40107 7//// 8//// | |||
| 2023-09-23T07:00 | 6 | 230 | 4 | 13.5 | 10.4 | 999 | 1012 | 23079 10393 62304 10135 20104 39991 40115 7//// 8//// | |||
| 2023-09-23T08:00 | 8 | 240 | 6 | 14.2 | 10.1 | 1000 | 1012 | 23089 10393 82406 10142 20101 39998 40121 7//// 8//// | |||
| 2023-09-23T09:00 | 7 | 250 | 6 | 14.8 | 9.8 | 1001 | 1013 | 23099 10393 72506 10148 20098 30007 40130 7//// 8//// | |||
| 2023-09-23T10:00 | 8 | 260 | 6 | 15.8 | 9.5 | 1001 | 1013 | 23109 10393 82606 10158 20095 30010 40133 7//// 8//// | |||
| 2023-09-23T11:00 | 8 | 260 | 5 | 15.5 | 9.6 | 1001 | 1014 | 23119 10393 82605 10155 20096 30014 40137 7//// 8//// | |||
| 2023-09-23T12:00 | 8 | 240 | 4 | 16.7 | 9.4 | 1002 | 1014 | 23129 10393 82404 10167 20094 30017 40140 7//// 8//// | |||
| 2023-09-23T13:00 | 7 | 250 | 5 | 17.1 | 8.9 | 1002 | 1014 | 23139 10393 72505 10171 20089 30018 40140 7//// 8//// | |||
| 2023-09-23T14:00 | 2 | 270 | 5 | 18.1 | 8.5 | 1003 | 1015 | 23149 10393 22705 10181 20085 30027 40149 7//// 8//// | |||
| 2023-09-23T15:00 | 7 | 260 | 5 | 17.5 | 8.2 | 1004 | 1016 | 23159 10393 72605 10175 20082 30035 40157 7//// 8//// | |||
| 2023-09-23T16:00 | 0 | 260 | 4 | 17.0 | 8.0 | 1004 | 1016 | 23169 10393 02604 10170 20080 30042 40165 7//// 8//// | |||
| 2023-09-23T17:00 | 1 | 270 | 3 | 15.7 | 8.3 | 1005 | 1017 | 23179 10393 12703 10157 20083 30050 40173 7//// 8//// | |||
| 2023-09-23T18:00 | 0 | 240 | 2 | 13.3 | 8.7 | 1005 | 1018 | 23189 10393 02402 10133 20087 30053 40177 7//// 8//// | |||
| 2023-09-23T19:00 | 0 | 230 | 2 | 12.7 | 8.9 | 1006 | 1019 | 23199 10393 02302 10127 20089 30063 40188 7//// 8//// | |||
| 2023-09-23T20:00 | 3 | 230 | 1 | 11.8 | 9.0 | 1007 | 1020 | 23209 10393 32301 10118 20090 30070 40195 7//// 8//// | |||
| 2023-09-23T21:00 | 8 | 240 | 3 | 12.4 | 8.6 | 1008 | 1020 | 23219 10393 82403 10124 20086 30075 40200 7//// 8//// | |||
| 2023-09-23T22:00 | 0 | 250 | 2 | 10.8 | 8.6 | 1008 | 1021 | 23229 10393 02502 10108 20086 30080 40206 7//// 8//// | |||
| 2023-09-23T23:00 | 0 | 240 | 3 | 10.3 | 8.4 | 1008 | 1021 | 23239 10393 02403 10103 20084 30084 40210 7//// 8//// | |||
| 2023-09-24T00:00 | 1 | 230 | 3 | 10.1 | 8.2 | 1009 | 1022 | 24009 10393 12303 10101 20082 30091 40217 7//// 8//// | |||
| 2023-09-24T01:00 | 0 | 250 | 2 | 9.8 | 8.2 | 1010 | 1022 | 24019 10393 02502 10098 20082 30095 40222 7//// 8//// | |||
| 2023-09-24T02:00 | 0 | 270 | 3 | 10.1 | 7.9 | 1010 | 1023 | 24029 10393 02703 10101 20079 30100 40227 7//// 8//// | |||
| 2023-09-24T03:00 | 0 | 280 | 3 | 9.5 | 8.0 | 1010 | 1023 | 24039 10393 02803 10095 20080 30104 40231 7//// 8//// | |||
| 2023-09-24T04:00 | 0 | 280 | 3 | 9.2 | 8.0 | 1011 | 1024 | 24049 10393 02803 10092 20080 30112 40239 7//// 8//// | |||
| 2023-09-24T05:00 | 3 | 260 | 2 | 8.5 | 7.9 | 1012 | 1025 | 24059 10393 32602 10085 20079 30121 40249 7//// 8//// | |||
| 2023-09-24T06:00 | 8 | 240 | 1 | 9.8 | 8.7 | 1013 | 1026 | 24069 10393 82401 10098 20087 30130 40257 7//// 8//// | |||
| 2023-09-24T07:00 | 8 | 290 | 3 | 11.7 | 9.8 | 1014 | 1026 | 10 | 0 | 1 | 24079 10393 82903 10117 20098 30137 40263 710011-1 8//// |
| 2023-09-24T08:00 | 8 | 290 | 3 | 12.7 | 10.1 | 1014 | 1027 | 24089 10393 82903 10127 20101 30143 40269 7//// 8//// | |||
| 2023-09-24T09:00 | 8 | 290 | 3 | 13.5 | 10.3 | 1015 | 1027 | 10 | 0 | 1 | 24099 10393 82903 10135 20103 30148 40274 710011-1 8//// |
| 2023-09-24T10:00 | 8 | 300 | 2 | 13.8 | 10.5 | 1015 | 1028 | 24109 10393 83002 10138 20105 30151 40276 7//// 8//// | |||
| 2023-09-24T11:00 | 8 | 320 | 2 | 14.5 | 10.3 | 1015 | 1028 | 24119 10393 83202 10145 20103 30153 40278 7//// 8//// | |||
| 2023-09-24T12:00 | 2 | 280 | 1 | 15.5 | 9.7 | 1015 | 1028 | 10 | 0 | 1 | 24129 10393 22801 10155 20097 30154 40279 710011-1 8//// |
| 2023-09-24T13:00 | 2 | 110 | 2 | 17.7 | 9.9 | 1015 | 1028 | 24139 10393 21102 10177 20099 30152 40276 7//// 8//// | |||
| 2023-09-24T14:00 | 1 | 70 | 1 | 18.0 | 9.0 | 1015 | 1028 | 10 | 0 | 1 | 24149 10393 10701 10180 20090 30152 40276 710011-1 8//// |
| 2023-09-24T15:00 | 0 | 70 | 1 | 17.9 | 8.8 | 1015 | 1027 | 10 | 0 | 1 | 24159 10393 00701 10179 20088 30150 40274 710011-1 8//// |
| 2023-09-24T16:00 | 0 | 100 | 1 | 17.4 | 9.5 | 1015 | 1027 | 10 | 0 | 1 | 24169 10393 01001 10174 20095 30150 40274 710011-1 8//// |
| 2023-09-24T17:00 | 0 | 80 | 2 | 14.6 | 9.9 | 1016 | 1028 | 24179 10393 00802 10146 20099 30155 40280 7//// 8//// | |||
| 2023-09-24T18:00 | 0 | 80 | 3 | 14.4 | 10.2 | 1016 | 1028 | 10 | 0 | 1 | 24189 10393 00803 10144 20102 30158 40283 710011-1 8//// |
| 2023-09-24T19:00 | 0 | 90 | 3 | 13.7 | 10.1 | 1016 | 1029 | 24199 10393 00903 10137 20101 30162 40288 7//// 8//// | |||
| 2023-09-24T20:00 | 0 | 90 | 3 | 13.0 | 9.9 | 1017 | 1029 | 10 | 0 | 1 | 24209 10393 00903 10130 20099 30166 40292 710011-1 8//// |
| 2023-09-24T21:00 | 0 | 90 | 3 | 12.4 | 10.0 | 1017 | 1029 | 10 | 0 | 1 | 24219 10393 00903 10124 20100 30167 40293 710011-1 8//// |
| 2023-09-24T22:00 | 0 | 110 | 3 | 12.0 | 10.3 | 1017 | 1029 | 24229 10393 01103 10120 20103 30166 40292 7//// 8//// | |||
| 2023-09-24T23:00 | 0 | 110 | 3 | 11.8 | 10.1 | 1016 | 1029 | 24239 10393 01103 10118 20101 30165 40291 7//// 8//// | |||
| 2023-09-25T00:00 | 0 | 110 | 3 | 11.0 | 9.8 | 1016 | 1029 | 10 | 0 | 1 | 25009 10393 01103 10110 20098 30162 40289 710011-1 8//// |
| 2023-09-25T01:00 | 0 | 110 | 3 | 10.7 | 9.3 | 1016 | 1029 | 10 | 0 | 1 | 25019 10393 01103 10107 20093 30162 40289 710011-1 8//// |
| 2023-09-25T02:00 | 0 | 110 | 3 | 10.2 | 8.9 | 1016 | 1029 | 25029 10393 01103 10102 20089 30159 40286 7//// 8//// | |||
| 2023-09-25T03:00 | 0 | 120 | 3 | 9.8 | 8.8 | 1016 | 1028 | 10 | 0 | 1 | 25039 10393 01203 10098 20088 30158 40285 710011-1 8//// |
| 2023-09-25T04:00 | 0 | 110 | 3 | 10.0 | 9.2 | 1016 | 1028 | 25049 10393 01103 10100 20092 30157 40284 7//// 8//// | |||
| 2023-09-25T05:00 | 0 | 110 | 3 | 10.2 | 9.3 | 1016 | 1028 | 25059 10393 01103 10102 20093 30157 40284 7//// 8//// | |||
| 2023-09-25T06:00 | 0 | 110 | 3 | 11.0 | 9.4 | 1016 | 1028 | 10 | 0 | 1 | 25069 10393 01103 10110 20094 30156 40283 710011-1 8//// |
| 2023-09-25T07:00 | 0 | 110 | 3 | 12.9 | 9.4 | 1016 | 1028 | 25079 10393 01103 10129 20094 30158 40284 7//// 8//// | |||
| 2023-09-25T08:00 | 0 | 110 | 2 | 13.6 | 9.9 | 1016 | 1028 | 25089 10393 01102 10136 20099 30159 40285 7//// 8//// | |||
| 2023-09-25T09:00 | 0 | 120 | 3 | 16.4 | 11.2 | 1016 | 1028 | 25099 10393 01203 10164 20112 30156 40280 7//// 8//// | |||
| 2023-09-25T10:00 | 8 | 110 | 3 | 18.5 | 11.1 | 1015 | 1028 | 25109 10393 81103 10185 20111 30154 40277 7//// 8//// | |||
| 2023-09-25T11:00 | 7 | 120 | 4 | 20.7 | 10.4 | 1015 | 1027 | 10 | 0 | 1 | 25119 10393 71204 10207 20104 30148 40270 710011-1 8//// |
| 2023-09-25T12:00 | 8 | 110 | 4 | 20.4 | 10.1 | 1014 | 1027 | 10 | 0 | 1 | 25129 10393 81104 10204 20101 30144 40267 710011-1 8//// |
| 2023-09-25T13:00 | 8 | 130 | 2 | 20.5 | 10.4 | 1014 | 1026 | 25139 10393 81302 10205 20104 30142 40264 7//// 8//// | |||
| 2023-09-25T14:00 | 3 | 120 | 3 | 20.3 | 10.4 | 1014 | 1026 | 25149 10393 31203 10203 20104 30137 40259 7//// 8//// | |||
| 2023-09-25T15:00 | 7 | 110 | 3 | 19.9 | 11.8 | 1013 | 1026 | 10 | 0 | 1 | 25159 10393 71103 10199 20118 30134 40257 710011-1 8//// |
| 2023-09-25T16:00 | 1 | 120 | 3 | 20.1 | 12.4 | 1013 | 1025 | 25169 10393 11203 10201 20124 30131 40253 7//// 8//// | |||
| 2023-09-25T17:00 | 0 | 110 | 2 | 17.7 | 12.7 | 1013 | 1025 | 25179 10393 01102 10177 20127 30129 40252 7//// 8//// | |||
| 2023-09-25T18:00 | 4 | 100 | 3 | 17.5 | 12.9 | 1013 | 1025 | 10 | 0 | 1 | 25189 10393 41003 10175 20129 30130 40253 710011-1 8//// |
| 2023-09-25T19:00 | 8 | 100 | 3 | 17.1 | 13.1 | 1013 | 1026 | 25199 10393 81003 10171 20131 30132 40256 7//// 8//// | |||
| 2023-09-25T20:00 | 8 | 90 | 3 | 16.1 | 13.1 | 1013 | 1026 | 25209 10393 80903 10161 20131 30133 40257 7//// 8//// | |||
| 2023-09-25T21:00 | 8 | 100 | 3 | 16.2 | 13.2 | 1013 | 1025 | 25219 10393 81003 10162 20132 30130 40254 7//// 8//// | |||
| 2023-09-25T22:00 | 8 | 100 | 3 | 15.9 | 13.3 | 1013 | 1025 | 25229 10393 81003 10159 20133 30129 40253 7//// 8//// | |||
| 2023-09-25T23:00 | 8 | 110 | 3 | 15.1 | 13.2 | 1013 | 1025 | 25239 10393 81103 10151 20132 30126 40250 7//// 8//// | |||
| 2023-09-26T00:00 | 8 | 100 | 3 | 14.6 | 13.1 | 1012 | 1025 | 26009 10393 81003 10146 20131 30125 40250 7//// 8//// | |||
| 2023-09-26T01:00 | 8 | 90 | 3 | 14.2 | 13.2 | 1012 | 1025 | 26019 10393 80903 10142 20132 30124 40249 7//// 8//// | |||
| 2023-09-26T02:00 | 8 | 80 | 3 | 13.5 | 12.5 | 1012 | 1025 | 26029 10393 80803 10135 20125 30123 40248 7//// 8//// | |||
| 2023-09-26T03:00 | 8 | 110 | 3 | 13.7 | 12.9 | 1012 | 1025 | 26039 10393 81103 10137 20129 30123 40248 7//// 8//// | |||
| 2023-09-26T04:00 | 8 | 100 | 3 | 13.1 | 12.6 | 1012 | 1024 | 10 | 0 | 1 | 26049 10393 81003 10131 20126 30119 40244 710011-1 8//// |
| 2023-09-26T05:00 | 6 | 110 | 3 | 13.0 | 12.4 | 1012 | 1024 | 10 | 0 | 1 | 26059 10393 61103 10130 20124 30117 40242 710011-1 8//// |
| 2023-09-26T06:00 | 0 | 110 | 3 | 12.1 | 11.6 | 1012 | 1024 | 11 | 0 | 1 | 26069 10393 01103 10121 20116 30118 40244 711011-1 8//// |
| 2023-09-26T07:00 | 6 | 110 | 3 | 12.1 | 11.5 | 1012 | 1024 | 12 | 0 | 1 | 26079 10393 61103 10121 20115 30119 40245 71201311 8//// |
| 2023-09-26T08:00 | 3 | 140 | 2 | 14.5 | 12.7 | 1012 | 1025 | 10 | 0 | 1 | 26089 10393 31402 10145 20127 30121 40246 710011-1 8//// |
| 2023-09-26T09:00 | 0 | 110 | 2 | 17.3 | 14.0 | 1012 | 1024 | 10 | 0 | 1 | 26099 10393 01102 10173 20140 30120 40243 71001311 8//// |
| 2023-09-26T10:00 | 0 | 140 | 2 | 20.5 | 14.4 | 1012 | 1024 | 26109 10393 01402 10205 20144 30115 40237 7//// 8//// | |||
| 2023-09-26T11:00 | 0 | 150 | 2 | 22.3 | 14.2 | 1011 | 1023 | 26119 10393 01502 10223 20142 30110 40231 7//// 8//// | |||
| 2023-09-26T12:00 | 0 | 130 | 2 | 22.8 | 14.1 | 1011 | 1023 | 10 | 4 | 1 | 26129 10393 01302 10228 20141 30106 40227 71041311 8//// |
| 2023-09-26T13:00 | 0 | 100 | 3 | 23.7 | 14.4 | 1010 | 1022 | 10 | 0 | 1 | 26139 10393 01003 10237 20144 30101 40221 710011-1 8//// |
| 2023-09-26T14:00 | 1 | 110 | 3 | 23.8 | 14.9 | 1010 | 1022 | 10 | 0 | 1 | 26149 10393 11103 10238 20149 30096 40216 710011-1 8//// |
| 2023-09-26T15:00 | 2 | 110 | 3 | 23.6 | 14.9 | 1009 | 1021 | 10 | 0 | 1 | 26159 10393 21103 10236 20149 30093 40213 710011-1 8//// |
| 2023-09-26T16:00 | 4 | 90 | 3 | 22.7 | 15.0 | 1009 | 1021 | 26169 10393 40903 10227 20150 30091 40212 7//// 8//// | |||
| 2023-09-26T17:00 | 7 | 100 | 3 | 20.9 | 15.4 | 1009 | 1021 | 26179 10393 71003 10209 20154 30092 40213 7//// 8//// | |||
| 2023-09-26T18:00 | 1 | 90 | 3 | 20.3 | 15.7 | 1009 | 1022 | 10 | 0 | 1 | 26189 10393 10903 10203 20157 30094 40216 710011-1 8//// |
| 2023-09-26T19:00 | 5 | 90 | 3 | 19.6 | 15.9 | 1010 | 1022 | 26199 10393 50903 10196 20159 30095 40217 7//// 8//// | |||
| 2023-09-26T20:00 | 2 | 100 | 3 | 19.2 | 16.1 | 1010 | 1022 | 26209 10393 21003 10192 20161 30095 40217 7//// 8//// | |||
| 2023-09-26T21:00 | 0 | 110 | 4 | 18.7 | 16.2 | 1009 | 1022 | 26219 10393 01104 10187 20162 30093 40215 7//// 8//// | |||
| 2023-09-26T22:00 | 0 | 110 | 3 | 18.1 | 16.1 | 1009 | 1022 | 26229 10393 01103 10181 20161 30093 40216 7//// 8//// | |||
| 2023-09-26T23:00 | 0 | 130 | 3 | 17.4 | 15.9 | 1009 | 1021 | 26239 10393 01303 10174 20159 30090 40213 7//// 8//// | |||
| 2023-09-27T00:00 | 0 | 140 | 2 | 17.0 | 16.0 | 1009 | 1021 | 27009 10393 01402 10170 20160 30091 40214 7//// 8//// | |||
| 2023-09-27T01:00 | 0 | 140 | 2 | 16.6 | 15.8 | 1009 | 1021 | 11 | 0 | 1 | 27019 10393 01402 10166 20158 30090 40213 711011-1 8//// |
| 2023-09-27T02:00 | 0 | 140 | 2 | 16.1 | 15.6 | 1009 | 1021 | 11 | 0 | 1 | 27029 10393 01402 10161 20156 30089 40212 71101111 8//// |
| 2023-09-27T03:00 | 0 | 140 | 2 | 15.8 | 15.3 | 1009 | 1022 | 11 | 0 | 1 | 27039 10393 01402 10158 20153 30091 40215 711011-1 8//// |
| 2023-09-27T04:00 | 3 | 150 | 2 | 15.1 | 14.8 | 1009 | 1021 | 13 | 0 | 1 | 27049 10393 31502 10151 20148 30090 40214 71301311 8//// |
| 2023-09-27T05:00 | 2 | 150 | 2 | 14.2 | 13.6 | 1009 | 1022 | 13 | 0 | 1 | 27059 10393 21502 10142 20136 30092 40216 71301311 8//// |
| 2023-09-27T06:00 | 8 | 140 | 2 | 14.7 | 14.3 | 1010 | 1022 | 13 | 0 | 1 | 27069 10393 81402 10147 20143 30099 40223 71301311 8//// |
| 2023-09-27T07:00 | 7 | 190 | 1 | 16.2 | 15.4 | 1010 | 1023 | 12 | 0 | 1 | 27079 10393 71901 10162 20154 30105 40229 71201311 8//// |
| 2023-09-27T08:00 | 5 | 240 | 1 | 18.8 | 15.4 | 1011 | 1023 | 10 | 0 | 1 | 27089 10393 52401 10188 20154 30107 40229 710011-1 8//// |
| 2023-09-27T09:00 | 7 | 100 | 1 | 21.6 | 16.1 | 1010 | 1022 | 10 | 0 | 1 | 27099 10393 71001 10216 20161 30103 40224 71001311 8//// |
| 2023-09-27T10:00 | 8 | 350 | 1 | 23.1 | 15.6 | 1010 | 1022 | 27109 10393 83501 10231 20156 30100 40221 7//// 8//// | |||
| 2023-09-27T11:00 | 6 | 110 | 2 | 24.2 | 15.2 | 1010 | 1022 | 10 | 4 | 1 | 27119 10393 61102 10242 20152 30097 40217 710411-1 8//// |
| 2023-09-27T12:00 | 0 | 130 | 2 | 25.0 | 15.8 | 1009 | 1021 | 10 | 0 | 1 | 27129 10393 01302 10250 20158 30092 40212 71001311 8//// |
| 2023-09-27T13:00 | 0 | 170 | 3 | 25.8 | 15.1 | 1009 | 1020 | 27139 10393 01703 10258 20151 30086 40205 7//// 8//// | |||
| 2023-09-27T14:00 | 0 | 140 | 3 | 26.3 | 14.6 | 1008 | 1020 | 27149 10393 01403 10263 20146 30081 40200 7//// 8//// | |||
| 2023-09-27T15:00 | 0 | 150 | 2 | 26.5 | 14.6 | 1008 | 1020 | 27159 10393 01502 10265 20146 30076 40195 7//// 8//// | |||
| 2023-09-27T16:00 | 0 | 110 | 2 | 25.5 | 15.1 | 1007 | 1019 | 27169 10393 01102 10255 20151 30074 40193 7//// 8//// | |||
| 2023-09-27T17:00 | 0 | 110 | 3 | 22.4 | 15.1 | 1007 | 1019 | 27179 10393 01103 10224 20151 30073 40194 7//// 8//// | |||
| 2023-09-27T18:00 | 0 | 100 | 3 | 22.0 | 14.0 | 1007 | 1019 | 27189 10393 01003 10220 20140 30072 40193 7//// 8//// | |||
| 2023-09-27T19:00 | 0 | 100 | 3 | 21.9 | 13.9 | 1007 | 1019 | 27199 10393 01003 10219 20139 30072 40193 7//// 8//// | |||
| 2023-09-27T20:00 | 0 | 100 | 3 | 20.5 | 13.5 | 1007 | 1019 | 27209 10393 01003 10205 20135 30069 40190 7//// 8//// | |||
| 2023-09-27T21:00 | 0 | 90 | 3 | 20.1 | 13.7 | 1006 | 1019 | 27219 10393 00903 10201 20137 30065 40187 7//// 8//// | |||
| 2023-09-27T22:00 | 0 | 80 | 3 | 19.0 | 13.5 | 1006 | 1018 | 27229 10393 00803 10190 20135 30062 40184 7//// 8//// | |||
| 2023-09-27T23:00 | 0 | 110 | 3 | 18.4 | 13.1 | 1006 | 1018 | 27239 10393 01103 10184 20131 30059 40181 7//// 8//// | |||
| 2023-09-28T00:00 | 0 | 110 | 5 | 18.0 | 12.3 | 1005 | 1018 | 28009 10393 01105 10180 20123 30054 40176 7//// 8//// | |||
| 2023-09-28T01:00 | 0 | 140 | 3 | 16.7 | 11.8 | 1005 | 1018 | 28019 10393 01403 10167 20118 30054 40177 7//// 8//// | |||
| 2023-09-28T02:00 | 0 | 140 | 3 | 15.8 | 11.5 | 1005 | 1017 | 28029 10393 01403 10158 20115 30051 40174 7//// 8//// | |||
| 2023-09-28T03:00 | 0 | 140 | 3 | 15.3 | 11.2 | 1005 | 1017 | 28039 10393 01403 10153 20112 30050 40173 7//// 8//// | |||
| 2023-09-28T04:00 | 0 | 150 | 3 | 14.6 | 11.0 | 1005 | 1018 | 28049 10393 01503 10146 20110 30051 40175 7//// 8//// | |||
| 2023-09-28T05:00 | 0 | 140 | 3 | 14.3 | 11.0 | 1005 | 1017 | 28059 10393 01403 10143 20110 30050 40174 7//// 8//// | |||
| 2023-09-28T06:00 | 0 | 160 | 2 | 14.5 | 11.1 | 1005 | 1018 | 28069 10393 01602 10145 20111 30054 40178 7//// 8//// | |||
| 2023-09-28T07:00 | 0 | 150 | 3 | 16.7 | 11.6 | 1006 | 1018 | 28079 10393 01503 10167 20116 30055 40178 7//// 8//// | |||
| 2023-09-28T08:00 | 0 | 180 | 2 | 19.4 | 12.5 | 1006 | 1018 | 28089 10393 01802 10194 20125 30060 40182 7//// 8//// | |||
| 2023-09-28T09:00 | 1 | 210 | 2 | 21.7 | 13.7 | 1006 | 1018 | 28099 10393 12102 10217 20137 30060 40181 7//// 8//// | |||
| 2023-09-28T10:00 | 0 | 220 | 3 | 23.3 | 14.6 | 1006 | 1018 | 28109 10393 02203 10233 20146 30062 40182 7//// 8//// | |||
| 2023-09-28T11:00 | 3 | 240 | 3 | 24.4 | 14.9 | 1006 | 1018 | 28119 10393 32403 10244 20149 30061 40181 7//// 8//// | |||
| 2023-09-28T12:00 | 7 | 200 | 3 | 25.2 | 14.6 | 1006 | 1018 | 28129 10393 72003 10252 20146 30060 40179 7//// 8//// | |||
| 2023-09-28T13:00 | 2 | 230 | 3 | 25.8 | 12.7 | 1006 | 1018 | 28139 10393 22303 10258 20127 30059 40178 7//// 8//// | |||
| 2023-09-28T14:00 | 8 | 220 | 2 | 25.9 | 12.4 | 1006 | 1018 | 28149 10393 82202 10259 20124 30058 40177 7//// 8//// | |||
| 2023-09-28T15:00 | 5 | 230 | 3 | 25.9 | 12.7 | 1005 | 1017 | 28159 10393 52303 10259 20127 30054 40173 7//// 8//// | |||
| 2023-09-28T16:00 | 0 | 240 | 2 | 25.5 | 13.8 | 1006 | 1018 | 28169 10393 02402 10255 20138 30056 40175 7//// 8//// | |||
| 2023-09-28T17:00 | 0 | 180 | 1 | 21.3 | 14.3 | 1006 | 1018 | 10 | 5 | 1 | 28179 10393 01801 10213 20143 30058 40179 710511-1 8//// |
| 2023-09-28T18:00 | 2 | 120 | 2 | 20.3 | 14.0 | 1006 | 1018 | 10 | 5 | 1 | 28189 10393 21202 10203 20140 30060 40181 710511-1 8//// |
| 2023-09-28T19:00 | 2 | 130 | 2 | 19.4 | 13.6 | 1006 | 1018 | 10 | 4 | 1 | 28199 10393 21302 10194 20136 30061 40183 710411-1 8//// |
| 2023-09-28T20:00 | 7 | 110 | 2 | 19.4 | 13.8 | 1006 | 1018 | 10 | 4 | 1 | 28209 10393 71102 10194 20138 30062 40184 710411-1 8//// |
| 2023-09-28T21:00 | 8 | 140 | 2 | 19.6 | 13.0 | 1006 | 1018 | 10 | 4 | 1 | 28219 10393 81402 10196 20130 30061 40183 710411-1 8//// |
| 2023-09-28T22:00 | 3 | 140 | 2 | 18.5 | 12.6 | 1006 | 1018 | 10 | 5 | 1 | 28229 10393 31402 10185 20126 30060 40182 71051111 8//// |
| 2023-09-28T23:00 | 5 | 160 | 3 | 17.4 | 12.6 | 1006 | 1018 | 10 | 4 | 1 | 28239 10393 51603 10174 20126 30062 40185 71041111 8//// |
| 2023-09-29T00:00 | 6 | 180 | 3 | 16.7 | 12.6 | 1006 | 1018 | 10 | 4 | 1 | 29009 10393 61803 10167 20126 30061 40184 710411-1 8//// |
| 2023-09-29T01:00 | 8 | 140 | 3 | 15.5 | 12.6 | 1006 | 1018 | 10 | 0 | 1 | 29019 10393 81403 10155 20126 30060 40183 710011-1 8//// |
| 2023-09-29T02:00 | 8 | 140 | 3 | 14.7 | 12.1 | 1006 | 1018 | 10 | 0 | 1 | 29029 10393 81403 10147 20121 30057 40181 710011-1 8//// |
| 2023-09-29T03:00 | 8 | 140 | 3 | 14.4 | 12.1 | 1006 | 1018 | 11 | 0 | 1 | 29039 10393 81403 10144 20121 30056 40180 711011-1 8//// |
| 2023-09-29T04:00 | 8 | 140 | 3 | 14.0 | 11.8 | 1005 | 1018 | 11 | 0 | 1 | 29049 10393 81403 10140 20118 30054 40178 71101111 8//// |
| 2023-09-29T05:00 | 1 | 140 | 3 | 13.0 | 11.4 | 1005 | 1018 | 11 | 0 | 1 | 29059 10393 11403 10130 20114 30052 40176 711011-1 8//// |
| 2023-09-29T06:00 | 6 | 180 | 2 | 13.4 | 11.6 | 1005 | 1018 | 10 | 0 | 1 | 29069 10393 61802 10134 20116 30054 40178 710011-1 8//// |
| 2023-09-29T07:00 | 6 | 180 | 2 | 16.2 | 12.3 | 1006 | 1018 | 10 | 0 | 1 | 29079 10393 61802 10162 20123 30056 40179 710011-1 8//// |
| 2023-09-29T08:00 | 8 | 220 | 3 | 18.8 | 12.6 | 1006 | 1018 | 29089 10393 82203 10188 20126 30057 40179 7//// 8//// | |||
| 2023-09-29T09:00 | 8 | 220 | 3 | 20.6 | 13.5 | 1006 | 1018 | 10 | 0 | 1 | 29099 10393 82203 10206 20135 30058 40179 710011-1 8//// |
| 2023-09-29T10:00 | 8 | 220 | 3 | 22.5 | 13.8 | 1006 | 1018 | 29109 10393 82203 10225 20138 30056 40176 7//// 8//// | |||
| 2023-09-29T11:00 | 8 | 220 | 3 | 22.9 | 14.2 | 1006 | 1018 | 29119 10393 82203 10229 20142 30056 40176 7//// 8//// | |||
| 2023-09-29T12:00 | 8 | 240 | 2 | 23.3 | 14.4 | 1006 | 1018 | 10 | 0 | 1 | 29129 10393 82402 10233 20144 30055 40175 710011-1 8//// |
| 2023-09-29T13:00 | 8 | 220 | 2 | 23.5 | 14.5 | 1005 | 1017 | 12 | 3 | 1 | 29139 10393 82202 10235 20145 30051 40171 71231611 8//// |
| 2023-09-29T14:00 | 8 | 210 | 1 | 23.5 | 15.0 | 1005 | 1017 | 29149 10393 82101 10235 20150 30049 40169 7//// 8//// | |||
| 2023-09-29T15:00 | 8 | 120 | 2 | 22.6 | 15.5 | 1004 | 1016 | 12 | 3 | 1 | 29159 10393 81202 10226 20155 30042 40162 71231611 8//// |
| 2023-09-29T16:00 | 8 | 140 | 2 | 22.1 | 15.5 | 1004 | 1016 | 12 | 3 | 1 | 29169 10393 81402 10221 20155 30039 40159 71231615 8//// |
| 2023-09-29T17:00 | 8 | 150 | 2 | 21.7 | 15.2 | 1004 | 1016 | 29179 10393 81502 10217 20152 30039 40159 7//// 8//// | |||
| 2023-09-29T18:00 | 8 | 140 | 2 | 21.7 | 14.8 | 1004 | 1016 | 10 | 0 | 1 | 29189 10393 81402 10217 20148 30039 40160 71001615 8//// |
| 2023-09-29T19:00 | 8 | 170 | 2 | 21.2 | 14.6 | 1004 | 1016 | 29199 10393 81702 10212 20146 30038 40159 7//// 8//// | |||
| 2023-09-29T20:00 | 8 | 220 | 4 | 21.3 | 13.9 | 1004 | 1016 | 29209 10393 82204 10213 20139 30039 40160 7//// 8//// | |||
| 2023-09-29T21:00 | 8 | 240 | 5 | 21.5 | 13.4 | 1004 | 1016 | 29219 10393 82405 10215 20134 30043 40164 7//// 8//// | |||
| 2023-09-29T22:00 | 7 | 280 | 5 | 21.2 | 14.3 | 1005 | 1017 | 29229 10393 72805 10212 20143 30049 40170 7//// 8//// | |||
| 2023-09-29T23:00 | 4 | 290 | 6 | 20.2 | 14.6 | 1005 | 1017 | 29239 10393 42906 10202 20146 30053 40174 7//// 8//// | |||
| 2023-09-30T00:00 | 7 | 290 | 8 | 19.2 | 15.2 | 1006 | 1019 | 30009 10393 72908 10192 20152 30065 40187 7//// 8//// | |||
| 2023-09-30T01:00 | 7 | 310 | 6 | 16.5 | 13.6 | 1008 | 1020 | 12 | 2 | 1 | 30019 10393 73106 10165 20136 30077 40200 712215-1 8//// |
| 2023-09-30T02:00 | 7 | 290 | 6 | 15.5 | 13.4 | 1008 | 1021 | 12 | 3 | 1 | 30029 10393 72906 10155 20134 30085 40209 71231615 8//// |
| 2023-09-30T03:00 | 3 | 300 | 5 | 14.1 | 10.4 | 1010 | 1022 | 10 | 0 | 1 | 30039 10393 33005 10141 20104 30095 40220 71001615 8//// |
| 2023-09-30T04:00 | 0 | 300 | 4 | 12.9 | 10.1 | 1010 | 1023 | 30049 10393 03004 10129 20101 30101 40226 7//// 8//// | |||
| 2023-09-30T05:00 | 0 | 290 | 4 | 12.5 | 10.8 | 1011 | 1023 | 30059 10393 02904 10125 20108 30107 40232 7//// 8//// | |||
| 2023-09-30T06:00 | 2 | 270 | 3 | 12.4 | 11.0 | 1011 | 1024 | 10 | 0 | 1 | 30069 10393 22703 10124 20110 30113 40239 71001615 8//// |
| 2023-09-30T07:00 | 7 | 280 | 5 | 13.4 | 11.0 | 1012 | 1024 | 10 | 0 | 1 | 30079 10393 72805 10134 20110 30119 40244 710011-1 8//// |
| 2023-09-30T08:00 | 8 | 270 | 4 | 14.1 | 10.9 | 1012 | 1025 | 30089 10393 82704 10141 20109 30125 40250 7//// 8//// | |||
| 2023-09-30T09:00 | 8 | 290 | 5 | 15.0 | 10.8 | 1013 | 1026 | 10 | 0 | 1 | 30099 10393 82905 10150 20108 30130 40255 710011-1 8//// |
| 2023-09-30T10:00 | 8 | 280 | 5 | 16.2 | 10.9 | 1013 | 1025 | 30109 10393 82805 10162 20109 30130 40254 7//// 8//// | |||
| 2023-09-30T11:00 | 5 | 280 | 4 | 17.9 | 10.4 | 1013 | 1025 | 30119 10393 52804 10179 20104 30130 40253 7//// 8//// | |||
| 2023-09-30T12:00 | 3 | 270 | 7 | 18.8 | 9.4 | 1013 | 1025 | 10 | 0 | 1 | 30129 10393 32707 10188 20094 30128 40251 710011-1 8//// |
| 2023-09-30T13:00 | 5 | 260 | 6 | 19.1 | 8.5 | 1012 | 1025 | 30139 10393 52606 10191 20085 30124 40247 7//// 8//// | |||
| 2023-09-30T14:00 | 5 | 270 | 5 | 19.3 | 8.3 | 1012 | 1024 | 30149 10393 52705 10193 20083 30122 40245 7//// 8//// | |||
| 2023-09-30T15:00 | 2 | 290 | 4 | 18.0 | 8.6 | 1012 | 1024 | 30159 10393 22904 10180 20086 30121 40244 7//// 8//// | |||
| 2023-09-30T16:00 | 0 | 280 | 3 | 17.7 | 8.5 | 1012 | 1024 | 30169 10393 02803 10177 20085 30119 40242 7//// 8//// | |||
| 2023-09-30T17:00 | 0 | 280 | 2 | 14.3 | 9.3 | 1012 | 1025 | 30179 10393 02802 10143 20093 30125 40250 7//// 8//// | |||
| 2023-09-30T18:00 | 2 | 260 | 2 | 13.0 | 9.2 | 1012 | 1025 | 30189 10393 22602 10130 20092 30124 40249 7//// 8//// | |||
| 2023-09-30T19:00 | 0 | 260 | 2 | 12.4 | 8.5 | 1013 | 1025 | 30199 10393 02602 10124 20085 30128 40254 7//// 8//// | |||
| 2023-09-30T20:00 | 1 | 270 | 3 | 11.7 | 8.5 | 1013 | 1025 | 30209 10393 12703 10117 20085 30128 40254 7//// 8//// | |||
| 2023-09-30T21:00 | 8 | 270 | 3 | 12.0 | 8.7 | 1013 | 1025 | 30219 10393 82703 10120 20087 30128 40254 7//// 8//// | |||
| 2023-09-30T22:00 | 8 | 270 | 3 | 11.6 | 8.5 | 1013 | 1025 | 30229 10393 82703 10116 20085 30127 40253 7//// 8//// | |||
| 2023-09-30T23:00 | 8 | 260 | 2 | 12.2 | 8.9 | 1013 | 1025 | 30239 10393 82602 10122 20089 30127 40253 7//// 8//// |
